Wetterdaten: Montag, 31.07.2017
Datum Zeit Temp. Aussen Temp. o. S. +5cm Feuchte Auss BlattFeu 1 Luftdruck Regen Sonnenschein Regendauer Solar Windben Empfang
31.07.2017 00:00 19,6 C 17,8 C 16,7 C 82 % 0 lf 1010,6 hPa 0,0 l/m 0 min 0 min 0 W/m 2,1 km/h (1 Bft) 90,00 %
31.07.2017 00:02 19,6 C 17,8 C 16,7 C 82 % 0 lf 1010,6 hPa 0,0 l/m 0 min 0 min 0 W/m 2,1 km/h (1 Bft) 90,48 %
31.07.2017 00:04 19,6 C 17,8 C 16,7 C 82 % 0 lf 1010,7 hPa 0,0 l/m 0 min 0 min 0 W/m 0,0 km/h (0 Bft) 91,84 %
31.07.2017 00:07 19,5 C 17,8 C 16,7 C 82 % 0 lf 1010,6 hPa 0,0 l/m 0 min 0 min 0 W/m 2,1 km/h (1 Bft) 91,84 %
31.07.2017 00:10 19,4 C 17,8 C 16,7 C 82 % 0 lf 1010,6 hPa 0,0 l/m 0 min 0 min 0 W/m 2,1 km/h (1 Bft) 94,24 %
31.07.2017 00:12 19,4 C 17,8 C 16,7 C 82 % 0 lf 1010,6 hPa 0,0 l/m 0 min 0 min 0 W/m 0,0 km/h (0 Bft) 95,74 %
31.07.2017 00:14 19,4 C 18,3 C 16,7 C 82 % 0 lf 1010,6 hPa 0,0 l/m 0 min 0 min 0 W/m 0,0 km/h (0 Bft) 95,65 %
31.07.2017 00:16 19,3 C 18,3 C 16,7 C 82 % 0 lf 1010,7 hPa 0,0 l/m 0 min 0 min 0 W/m 4,2 km/h (1 Bft) 95,74 %
31.07.2017 00:18 19,3 C 18,3 C 16,7 C 82 % 0 lf 1010,7 hPa 0,0 l/m 0 min 0 min 0 W/m 4,2 km/h (1 Bft) 97,87 %
31.07.2017 00:20 19,3 C 18,3 C 17,2 C 82 % 0 lf 1010,9 hPa 0,0 l/m 0 min 0 min 0 W/m 0,0 km/h (0 Bft) 95,74 %
31.07.2017 00:22 19,3 C 18,3 C 17,2 C 82 % 0 lf 1010,9 hPa 0,0 l/m 0 min 0 min 0 W/m 6,3 km/h (2 Bft) 95,74 %
31.07.2017 00:24 19,2 C 18,3 C 17,2 C 83 % 0 lf 1011,2 hPa 0,0 l/m 0 min 0 min 0 W/m 8,4 km/h (2 Bft) 93,62 %
31.07.2017 00:26 19,2 C 18,3 C 17,2 C 83 % 0 lf 1011,2 hPa 0,0 l/m 0 min 0 min 0 W/m 6,3 km/h (2 Bft) 95,65 %
31.07.2017 00:28 19,2 C 18,3 C 17,2 C 83 % 11 lf 1011,1 hPa 0,0 l/m 0 min 0 min 0 W/m 2,1 km/h (1 Bft) 91,49 %
31.07.2017 00:30 19,2 C 18,3 C 17,2 C 83 % 10 lf 1011,1 hPa 0,0 l/m 0 min 2 min 0 W/m 2,1 km/h (1 Bft) 89,36 %
31.07.2017 00:32 19,2 C 18,3 C 17,2 C 84 % 7 lf 1011,1 hPa 0,0 l/m 0 min 0 min 0 W/m 2,1 km/h (1 Bft) 95,74 %
31.07.2017 00:34 19,1 C 18,3 C 17,2 C 84 % 4 lf 1011,1 hPa 0,0 l/m 0 min 0 min 0 W/m 6,3 km/h (2 Bft) 93,62 %
31.07.2017 00:36 19,1 C 18,3 C 17,2 C 84 % 2 lf 1011,1 hPa 0,0 l/m 0 min 0 min 0 W/m 4,2 km/h (1 Bft) 93,62 %
31.07.2017 00:38 19,1 C 18,3 C 17,2 C 85 % 1 lf 1011,0 hPa 0,0 l/m 0 min 0 min 0 W/m 6,3 km/h (2 Bft) 93,48 %
31.07.2017 00:40 19,1 C 18,3 C 17,2 C 85 % 0 lf 1011,0 hPa 0,0 l/m 0 min 0 min 0 W/m 6,3 km/h (2 Bft) 91,49 %
31.07.2017 00:42 19,1 C 18,3 C 17,2 C 85 % 0 lf 1011,0 hPa 0,0 l/m 0 min 0 min 0 W/m 6,3 km/h (2 Bft) 93,62 %
31.07.2017 00:44 19,1 C 18,3 C 17,2 C 85 % 0 lf 1011,0 hPa 0,0 l/m 0 min 0 min 0 W/m 4,2 km/h (1 Bft) 93,62 %
31.07.2017 00:46 19,1 C 18,3 C 17,2 C 85 % 0 lf 1011,0 hPa 0,0 l/m 0 min 0 min 0 W/m 6,3 km/h (2 Bft) 91,49 %
31.07.2017 00:48 19,1 C 18,3 C 17,2 C 85 % 0 lf 1011,1 hPa 0,0 l/m 0 min 0 min 0 W/m 6,3 km/h (2 Bft) 93,62 %
31.07.2017 00:50 19,1 C 18,3 C 17,2 C 86 % 0 lf 1011,0 hPa 0,0 l/m 0 min 0 min 0 W/m 8,4 km/h (2 Bft) 95,65 %
31.07.2017 00:52 19,1 C 18,3 C 17,2 C 86 % 0 lf 1011,1 hPa 0,0 l/m 0 min 0 min 0 W/m 8,4 km/h (2 Bft) 93,62 %
31.07.2017 00:54 19,1 C 18,3 C 17,2 C 86 % 0 lf 1011,1 hPa 0,0 l/m 0 min 0 min 0 W/m 8,4 km/h (2 Bft) 93,62 %
31.07.2017 00:56 19,1 C 18,3 C 17,2 C 87 % 0 lf 1011,1 hPa 0,0 l/m 0 min 0 min 0 W/m 8,4 km/h (2 Bft) 95,74 %
31.07.2017 00:58 19,0 C 18,3 C 16,7 C 87 % 0 lf 1011,2 hPa 0,0 l/m 0 min 0 min 0 W/m 4,2 km/h (1 Bft) 97,87 %
31.07.2017 01:00 19,0 C 17,8 C 16,7 C 87 % 0 lf 1011,1 hPa 0,0 l/m 0 min 0 min 0 W/m 6,3 km/h (2 Bft) 95,35 %
31.07.2017 01:02 18,9 C 17,8 C 16,7 C 87 % 0 lf 1011,1 hPa 0,0 l/m 0 min 0 min 0 W/m 8,4 km/h (2 Bft) 93,88 %
31.07.2017 01:04 18,9 C 17,8 C 16,7 C 87 % 0 lf 1011,2 hPa 0,0 l/m 0 min 0 min 0 W/m 6,3 km/h (2 Bft) 95,83 %
31.07.2017 01:06 18,9 C 17,8 C 16,7 C 87 % 0 lf 1011,1 hPa 0,0 l/m 0 min 0 min 0 W/m 6,3 km/h (2 Bft) 93,62 %
31.07.2017 01:08 18,9 C 17,8 C 16,7 C 87 % 0 lf 1011,2 hPa 0,0 l/m 0 min 0 min 0 W/m 6,3 km/h (2 Bft) 93,62 %
31.07.2017 01:10 18,9 C 17,8 C 16,7 C 87 % 0 lf 1011,2 hPa 0,0 l/m 0 min 0 min 0 W/m 6,3 km/h (2 Bft) 93,88 %
31.07.2017 01:12 18,8 C 17,8 C 16,1 C 87 % 0 lf 1011,2 hPa 0,0 l/m 0 min 0 min 0 W/m 6,3 km/h (2 Bft) 95,65 %
31.07.2017 01:14 18,8 C 17,8 C 16,1 C 87 % 0 lf 1011,2 hPa 0,0 l/m 0 min 0 min 0 W/m 6,3 km/h (2 Bft) 95,74 %
31.07.2017 01:16 18,8 C 17,2 C 16,1 C 87 % 0 lf 1011,2 hPa 0,0 l/m 0 min 0 min 0 W/m 4,2 km/h (1 Bft) 95,74 %
31.07.2017 01:18 18,8 C 17,2 C 16,1 C 87 % 0 lf 1011,3 hPa 0,0 l/m 0 min 0 min 0 W/m 6,3 km/h (2 Bft) 97,87 %
31.07.2017 01:20 18,7 C 17,2 C 16,1 C 87 % 0 lf 1011,2 hPa 0,0 l/m 0 min 0 min 0 W/m 6,3 km/h (2 Bft) 97,87 %
31.07.2017 01:22 18,7 C 17,2 C 16,1 C 88 % 0 lf 1011,2 hPa 0,0 l/m 0 min 0 min 0 W/m 8,4 km/h (2 Bft) 97,87 %
31.07.2017 01:24 18,7 C 17,2 C 16,1 C 88 % 0 lf 1011,2 hPa 0,0 l/m 0 min 0 min 0 W/m 6,3 km/h (2 Bft) 97,83 %
31.07.2017 01:26 18,6 C 17,2 C 16,1 C 88 % 0 lf 1011,2 hPa 0,0 l/m 0 min 0 min 0 W/m 6,3 km/h (2 Bft) 97,87 %
31.07.2017 01:28 18,6 C 17,2 C 16,1 C 88 % 0 lf 1011,3 hPa 0,0 l/m 0 min 0 min 0 W/m 10,5 km/h (2 Bft) 97,87 %
31.07.2017 01:30 18,6 C 17,2 C 15,6 C 88 % 0 lf 1011,3 hPa 0,0 l/m 0 min 0 min 0 W/m 4,2 km/h (1 Bft) 97,87 %
31.07.2017 01:32 18,6 C 17,2 C 15,6 C 88 % 0 lf 1011,3 hPa 0,0 l/m 0 min 0 min 0 W/m 6,3 km/h (2 Bft) 100,00 %
31.07.2017 01:34 18,5 C 17,2 C 15,6 C 88 % 0 lf 1011,3 hPa 0,0 l/m 0 min 0 min 0 W/m 8,4 km/h (2 Bft) 100,00 %
31.07.2017 01:36 18,4 C 17,2 C 15,6 C 88 % 0 lf 1011,3 hPa 0,0 l/m 0 min 0 min 0 W/m 6,3 km/h (2 Bft) 100,00 %
31.07.2017 01:38 18,4 C 17,2 C 15,6 C 88 % 0 lf 1011,3 hPa 0,0 l/m 0 min 0 min 0 W/m 4,2 km/h (1 Bft) 100,00 %
31.07.2017 01:40 18,4 C 17,2 C 15,6 C 88 % 0 lf 1011,3 hPa 0,0 l/m 0 min 0 min 0 W/m 0,0 km/h (0 Bft) 100,00 %
31.07.2017 01:42 18,4 C 17,2 C 15,6 C 88 % 0 lf 1011,3 hPa 0,0 l/m 0 min 0 min 0 W/m 6,3 km/h (2 Bft) 100,00 %
31.07.2017 01:44 18,4 C 17,2 C 15,6 C 88 % 0 lf 1011,1 hPa 0,0 l/m 0 min 0 min 0 W/m 2,1 km/h (1 Bft) 100,00 %
31.07.2017 01:46 18,3 C 17,2 C 15,6 C 88 % 0 lf 1011,2 hPa 0,0 l/m 0 min 0 min 0 W/m 2,1 km/h (1 Bft) 97,87 %
31.07.2017 01:48 18,3 C 17,2 C 15,6 C 88 % 0 lf 1011,2 hPa 0,0 l/m 0 min 0 min 0 W/m 2,1 km/h (1 Bft) 100,00 %
31.07.2017 01:50 18,3 C 16,7 C 15,6 C 88 % 0 lf 1011,3 hPa 0,0 l/m 0 min 0 min 0 W/m 4,2 km/h (1 Bft) 97,87 %
31.07.2017 01:52 18,3 C 16,7 C 15,0 C 88 % 0 lf 1011,3 hPa 0,0 l/m 0 min 0 min 0 W/m 2,1 km/h (1 Bft) 100,00 %
31.07.2017 01:54 18,2 C 16,7 C 15,0 C 88 % 1 lf 1011,2 hPa 0,0 l/m 0 min 0 min 0 W/m 2,1 km/h (1 Bft) 100,00 %
31.07.2017 01:56 18,2 C 16,7 C 15,0 C 88 % 1 lf 1011,1 hPa 0,0 l/m 0 min 0 min 0 W/m 4,2 km/h (1 Bft) 97,87 %
31.07.2017 01:58 18,2 C 16,7 C 15,0 C 88 % 1 lf 1011,2 hPa 0,0 l/m 0 min 0 min 0 W/m 2,1 km/h (1 Bft) 97,87 %
31.07.2017 02:00 18,1 C 16,7 C 15,0 C 88 % 1 lf 1011,2 hPa 0,0 l/m 0 min 0 min 0 W/m 0,0 km/h (0 Bft) 100,00 %
31.07.2017 02:02 18,1 C 16,7 C 15,0 C 88 % 1 lf 1011,1 hPa 0,0 l/m 0 min 0 min 0 W/m 0,0 km/h (0 Bft) 100,00 %
31.07.2017 02:04 18,1 C 16,7 C 15,0 C 88 % 1 lf 1011,1 hPa 0,0 l/m 0 min 0 min 0 W/m 0,0 km/h (0 Bft) 100,00 %
31.07.2017 02:06 18,1 C 16,7 C 15,0 C 88 % 1 lf 1011,1 hPa 0,0 l/m 0 min 0 min 0 W/m 0,0 km/h (0 Bft) 100,00 %
31.07.2017 02:08 18,0 C 16,7 C 15,0 C 88 % 1 lf 1011,1 hPa 0,0 l/m 0 min 0 min 0 W/m 4,2 km/h (1 Bft) 100,00 %
31.07.2017 02:10 18,0 C 16,7 C 15,0 C 89 % 1 lf 1011,1 hPa 0,0 l/m 0 min 0 min 0 W/m 4,2 km/h (1 Bft) 97,87 %
31.07.2017 02:12 17,9 C 16,7 C 15,0 C 89 % 1 lf 1011,0 hPa 0,0 l/m 0 min 0 min 0 W/m 6,3 km/h (2 Bft) 100,00 %
31.07.2017 02:14 17,9 C 16,7 C 15,0 C 89 % 1 lf 1011,0 hPa 0,0 l/m 0 min 0 min 0 W/m 6,3 km/h (2 Bft) 100,00 %
31.07.2017 02:16 17,9 C 16,7 C 15,0 C 89 % 1 lf 1011,1 hPa 0,0 l/m 0 min 0 min 0 W/m 6,3 km/h (2 Bft) 97,87 %
31.07.2017 02:18 17,9 C 16,7 C 15,0 C 89 % 1 lf 1011,0 hPa 0,0 l/m 0 min 0 min 0 W/m 6,3 km/h (2 Bft) 97,87 %
31.07.2017 02:20 17,8 C 16,7 C 15,0 C 90 % 1 lf 1011,0 hPa 0,0 l/m 0 min 0 min 0 W/m 4,2 km/h (1 Bft) 95,74 %
31.07.2017 02:22 17,8 C 16,7 C 15,0 C 90 % 1 lf 1011,0 hPa 0,0 l/m 0 min 0 min 0 W/m 4,2 km/h (1 Bft) 97,87 %
31.07.2017 02:24 17,8 C 16,7 C 15,0 C 90 % 1 lf 1011,0 hPa 0,0 l/m 0 min 0 min 0 W/m 6,3 km/h (2 Bft) 95,65 %
31.07.2017 02:26 17,7 C 16,1 C 15,0 C 90 % 1 lf 1011,0 hPa 0,0 l/m 0 min 0 min 0 W/m 6,3 km/h (2 Bft) 97,87 %
31.07.2017 02:28 17,7 C 16,7 C 15,0 C 90 % 1 lf 1011,0 hPa 0,0 l/m 0 min 0 min 0 W/m 6,3 km/h (2 Bft) 97,87 %
31.07.2017 02:30 17,7 C 16,1 C 15,0 C 90 % 1 lf 1010,9 hPa 0,0 l/m 0 min 0 min 0 W/m 6,3 km/h (2 Bft) 95,74 %
31.07.2017 02:32 17,7 C 16,1 C 15,0 C 90 % 1 lf 1011,0 hPa 0,0 l/m 0 min 0 min 0 W/m 6,3 km/h (2 Bft) 95,74 %
31.07.2017 02:34 17,7 C 16,1 C 15,0 C 90 % 1 lf 1011,0 hPa 0,0 l/m 0 min 0 min 0 W/m 4,2 km/h (1 Bft) 97,87 %
31.07.2017 02:36 17,6 C 16,1 C 14,4 C 90 % 1 lf 1011,0 hPa 0,0 l/m 0 min 0 min 0 W/m 4,2 km/h (1 Bft) 95,65 %
31.07.2017 02:38 17,6 C 16,1 C 14,4 C 90 % 2 lf 1010,9 hPa 0,0 l/m 0 min 0 min 0 W/m 4,2 km/h (1 Bft) 95,74 %
31.07.2017 02:40 17,6 C 16,1 C 14,4 C 91 % 2 lf 1010,9 hPa 0,0 l/m 0 min 0 min 0 W/m 2,1 km/h (1 Bft) 93,62 %
31.07.2017 02:42 17,5 C 16,1 C 14,4 C 91 % 2 lf 1010,9 hPa 0,0 l/m 0 min 0 min 0 W/m 0,0 km/h (0 Bft) 95,74 %
31.07.2017 02:44 17,5 C 16,1 C 14,4 C 90 % 2 lf 1010,9 hPa 0,0 l/m 0 min 0 min 0 W/m 2,1 km/h (1 Bft) 93,62 %
31.07.2017 02:46 17,4 C 15,6 C 14,4 C 90 % 2 lf 1010,9 hPa 0,0 l/m 0 min 0 min 0 W/m 2,1 km/h (1 Bft) 93,62 %
31.07.2017 02:48 17,4 C 15,6 C 14,4 C 90 % 2 lf 1011,0 hPa 0,0 l/m 0 min 0 min 0 W/m 0,0 km/h (0 Bft) 91,30 %
31.07.2017 02:50 17,4 C 15,6 C 14,4 C 90 % 2 lf 1010,8 hPa 0,0 l/m 0 min 0 min 0 W/m 0,0 km/h (0 Bft) 95,74 %
31.07.2017 02:52 17,3 C 15,6 C 14,4 C 90 % 3 lf 1010,8 hPa 0,0 l/m 0 min 0 min 0 W/m 0,0 km/h (0 Bft) 93,62 %
31.07.2017 02:54 17,3 C 15,0 C 13,9 C 90 % 3 lf 1010,8 hPa 0,0 l/m 0 min 0 min 0 W/m 0,0 km/h (0 Bft) 95,74 %
31.07.2017 02:56 17,2 C 15,0 C 13,9 C 90 % 3 lf 1010,9 hPa 0,0 l/m 0 min 0 min 0 W/m 0,0 km/h (0 Bft) 95,74 %
31.07.2017 02:58 17,2 C 15,0 C 14,4 C 90 % 3 lf 1010,8 hPa 0,0 l/m 0 min 0 min 0 W/m 0,0 km/h (0 Bft) 91,49 %
31.07.2017 03:00 17,2 C 15,6 C 14,4 C 90 % 3 lf 1010,8 hPa 0,0 l/m 0 min 0 min 0 W/m 2,1 km/h (1 Bft) 89,80 %
31.07.2017 03:02 17,2 C 15,6 C 14,4 C 90 % 3 lf 1010,9 hPa 0,0 l/m 0 min 0 min 0 W/m 2,1 km/h (1 Bft) 93,75 %
31.07.2017 03:04 17,1 C 15,6 C 15,0 C 90 % 2 lf 1010,9 hPa 0,0 l/m 0 min 0 min 0 W/m 2,1 km/h (1 Bft) 93,62 %
31.07.2017 03:06 17,1 C 15,6 C 15,0 C 91 % 2 lf 1011,0 hPa 0,0 l/m 0 min 0 min 0 W/m 4,2 km/h (1 Bft) 95,74 %
31.07.2017 03:08 17,1 C 15,6 C 15,0 C 90 % 2 lf 1011,1 hPa 0,0 l/m 0 min 0 min 0 W/m 2,1 km/h (1 Bft) 91,43 %
31.07.2017 03:10 17,1 C 15,6 C 15,0 C 91 % 2 lf 1011,1 hPa 0,0 l/m 0 min 0 min 0 W/m 6,3 km/h (2 Bft) 94,64 %
31.07.2017 03:12 17,0 C 15,6 C 15,0 C 91 % 1 lf 1011,3 hPa 0,0 l/m 0 min 0 min 0 W/m 4,2 km/h (1 Bft) 93,62 %
31.07.2017 03:14 17,0 C 15,6 C 15,0 C 91 % 3 lf 1011,3 hPa 0,0 l/m 0 min 2 min 0 W/m 2,1 km/h (1 Bft) 97,87 %
31.07.2017 03:16 16,9 C 15,6 C 15,0 C 91 % 4 lf 1011,2 hPa 0,0 l/m 0 min 0 min 0 W/m 2,1 km/h (1 Bft) 97,87 %
31.07.2017 03:18 16,9 C 15,6 C 15,0 C 91 % 4 lf 1011,1 hPa 0,0 l/m 0 min 2 min 0 W/m 2,1 km/h (1 Bft) 97,87 %
31.07.2017 03:20 16,9 C 15,6 C 15,0 C 91 % 3 lf 1011,0 hPa 0,0 l/m 0 min 0 min 0 W/m 0,0 km/h (0 Bft) 97,87 %
31.07.2017 03:22 16,9 C 15,6 C 15,0 C 91 % 3 lf 1011,0 hPa 0,0 l/m 0 min 0 min 0 W/m 2,1 km/h (1 Bft) 97,83 %
31.07.2017 03:24 16,8 C 15,6 C 15,0 C 91 % 2 lf 1010,9 hPa 0,0 l/m 0 min 0 min 0 W/m 4,2 km/h (1 Bft) 97,87 %
31.07.2017 03:26 16,8 C 15,6 C 15,0 C 91 % 2 lf 1011,0 hPa 0,0 l/m 0 min 0 min 0 W/m 2,1 km/h (1 Bft) 97,87 %
31.07.2017 03:28 16,8 C 15,6 C 15,0 C 91 % 1 lf 1011,1 hPa 0,0 l/m 0 min 0 min 0 W/m 2,1 km/h (1 Bft) 97,87 %
31.07.2017 03:30 16,8 C 15,6 C 15,0 C 91 % 1 lf 1011,0 hPa 0,0 l/m 0 min 0 min 0 W/m 2,1 km/h (1 Bft) 97,87 %
31.07.2017 03:32 16,7 C 15,6 C 15,0 C 91 % 1 lf 1011,0 hPa 0,0 l/m 0 min 0 min 0 W/m 0,0 km/h (0 Bft) 95,74 %
31.07.2017 03:34 16,7 C 15,6 C 15,0 C 91 % 1 lf 1010,9 hPa 0,0 l/m 0 min 0 min 0 W/m 0,0 km/h (0 Bft) 97,83 %
31.07.2017 03:36 16,7 C 15,6 C 14,4 C 91 % 1 lf 1010,8 hPa 0,0 l/m 0 min 0 min 0 W/m 0,0 km/h (0 Bft) 97,87 %
31.07.2017 03:38 16,7 C 15,6 C 14,4 C 91 % 0 lf 1010,9 hPa 0,0 l/m 0 min 0 min 0 W/m 2,1 km/h (1 Bft) 97,87 %
31.07.2017 03:40 16,7 C 15,0 C 14,4 C 91 % 1 lf 1010,9 hPa 0,0 l/m 0 min 0 min 0 W/m 2,1 km/h (1 Bft) 97,87 %
31.07.2017 03:42 16,7 C 15,0 C 14,4 C 91 % 1 lf 1010,9 hPa 0,0 l/m 0 min 0 min 0 W/m 0,0 km/h (0 Bft) 95,74 %
31.07.2017 03:44 16,6 C 15,0 C 13,9 C 91 % 1 lf 1010,9 hPa 0,0 l/m 0 min 0 min 0 W/m 2,1 km/h (1 Bft) 100,00 %
31.07.2017 03:46 16,6 C 15,0 C 13,9 C 91 % 1 lf 1011,0 hPa 0,0 l/m 0 min 0 min 0 W/m 4,2 km/h (1 Bft) 97,83 %
31.07.2017 03:48 16,6 C 15,0 C 13,9 C 91 % 1 lf 1010,9 hPa 0,0 l/m 0 min 0 min 0 W/m 4,2 km/h (1 Bft) 100,00 %
31.07.2017 03:50 16,6 C 15,6 C 13,9 C 91 % 1 lf 1011,0 hPa 0,0 l/m 0 min 0 min 0 W/m 4,2 km/h (1 Bft) 100,00 %
31.07.2017 03:52 16,5 C 15,6 C 13,9 C 91 % 1 lf 1011,0 hPa 0,0 l/m 0 min 0 min 0 W/m 4,2 km/h (1 Bft) 100,00 %
31.07.2017 03:54 16,5 C 15,6 C 13,9 C 91 % 1 lf 1011,1 hPa 0,0 l/m 0 min 0 min 0 W/m 6,3 km/h (2 Bft) 97,87 %
31.07.2017 03:56 16,4 C 15,0 C 13,9 C 91 % 1 lf 1011,0 hPa 0,0 l/m 0 min 0 min 0 W/m 4,2 km/h (1 Bft) 100,00 %
31.07.2017 03:58 16,4 C 15,0 C 13,9 C 91 % 1 lf 1011,0 hPa 0,0 l/m 0 min 0 min 0 W/m 4,2 km/h (1 Bft) 97,87 %
31.07.2017 04:00 16,4 C 15,6 C 13,9 C 91 % 1 lf 1010,9 hPa 0,0 l/m 0 min 0 min 0 W/m 8,4 km/h (2 Bft) 97,62 %
31.07.2017 04:02 16,4 C 15,6 C 13,9 C 92 % 1 lf 1011,0 hPa 0,0 l/m 0 min 0 min 0 W/m 8,4 km/h (2 Bft) 100,00 %
31.07.2017 04:04 16,4 C 15,6 C 13,9 C 91 % 1 lf 1010,9 hPa 0,0 l/m 0 min 0 min 0 W/m 6,3 km/h (2 Bft) 97,87 %
31.07.2017 04:06 16,3 C 15,6 C 13,9 C 92 % 1 lf 1010,9 hPa 0,0 l/m 0 min 0 min 0 W/m 6,3 km/h (2 Bft) 100,00 %
31.07.2017 04:08 16,3 C 15,6 C 13,9 C 92 % 1 lf 1010,9 hPa 0,0 l/m 0 min 0 min 0 W/m 4,2 km/h (1 Bft) 100,00 %
31.07.2017 04:10 16,3 C 15,6 C 13,9 C 92 % 2 lf 1010,9 hPa 0,0 l/m 0 min 0 min 0 W/m 6,3 km/h (2 Bft) 95,65 %
31.07.2017 04:12 16,3 C 15,6 C 13,9 C 92 % 2 lf 1010,9 hPa 0,0 l/m 0 min 0 min 0 W/m 4,2 km/h (1 Bft) 95,74 %
31.07.2017 04:14 16,3 C 15,0 C 13,9 C 92 % 1 lf 1010,9 hPa 0,0 l/m 0 min 0 min 0 W/m 0,0 km/h (0 Bft) 97,87 %
31.07.2017 04:16 16,3 C 15,0 C 13,9 C 92 % 1 lf 1010,9 hPa 0,0 l/m 0 min 0 min 0 W/m 0,0 km/h (0 Bft) 97,87 %
31.07.2017 04:18 16,2 C 15,0 C 13,9 C 92 % 2 lf 1011,0 hPa 0,0 l/m 0 min 0 min 0 W/m 0,0 km/h (0 Bft) 97,87 %
31.07.2017 04:20 16,2 C 15,0 C 13,9 C 92 % 2 lf 1011,0 hPa 0,0 l/m 0 min 0 min 0 W/m 0,0 km/h (0 Bft) 97,83 %
31.07.2017 04:22 16,2 C 15,0 C 13,9 C 92 % 2 lf 1011,0 hPa 0,0 l/m 0 min 0 min 0 W/m 0,0 km/h (0 Bft) 95,74 %
31.07.2017 04:24 16,2 C 15,0 C 13,9 C 92 % 1 lf 1011,1 hPa 0,0 l/m 0 min 0 min 0 W/m 0,0 km/h (0 Bft) 95,74 %
31.07.2017 04:26 16,2 C 14,4 C 13,9 C 92 % 1 lf 1011,1 hPa 0,0 l/m 0 min 0 min 0 W/m 0,0 km/h (0 Bft) 97,87 %
31.07.2017 04:28 16,2 C 14,4 C 13,9 C 92 % 1 lf 1011,1 hPa 0,0 l/m 0 min 0 min 0 W/m 0,0 km/h (0 Bft) 91,49 %
31.07.2017 04:30 16,2 C 14,4 C 13,3 C 92 % 1 lf 1011,0 hPa 0,0 l/m 0 min 0 min 0 W/m 0,0 km/h (0 Bft) 95,74 %
31.07.2017 04:32 16,1 C 14,4 C 13,3 C 92 % 1 lf 1011,0 hPa 0,0 l/m 0 min 0 min 0 W/m 0,0 km/h (0 Bft) 97,83 %
31.07.2017 04:34 16,1 C 14,4 C 13,3 C 92 % 1 lf 1011,1 hPa 0,0 l/m 0 min 0 min 0 W/m 0,0 km/h (0 Bft) 95,74 %
31.07.2017 04:36 16,1 C 14,4 C 13,3 C 92 % 1 lf 1011,1 hPa 0,0 l/m 0 min 0 min 0 W/m 0,0 km/h (0 Bft) 91,49 %
31.07.2017 04:38 16,1 C 13,9 C 13,3 C 92 % 1 lf 1011,1 hPa 0,0 l/m 0 min 0 min 0 W/m 0,0 km/h (0 Bft) 95,74 %
31.07.2017 04:40 16,0 C 13,9 C 13,3 C 92 % 2 lf 1011,1 hPa 0,0 l/m 0 min 0 min 0 W/m 0,0 km/h (0 Bft) 95,74 %
31.07.2017 04:42 16,0 C 13,9 C 13,3 C 92 % 2 lf 1011,1 hPa 0,0 l/m 0 min 0 min 0 W/m 0,0 km/h (0 Bft) 95,74 %
31.07.2017 04:44 15,9 C 13,9 C 13,3 C 92 % 2 lf 1011,1 hPa 0,0 l/m 0 min 0 min 0 W/m 0,0 km/h (0 Bft) 91,30 %
31.07.2017 04:46 15,9 C 14,4 C 12,8 C 92 % 2 lf 1011,1 hPa 0,0 l/m 0 min 0 min 0 W/m 0,0 km/h (0 Bft) 93,62 %
31.07.2017 04:48 15,9 C 14,4 C 13,3 C 92 % 2 lf 1011,0 hPa 0,0 l/m 0 min 0 min 0 W/m 4,2 km/h (1 Bft) 93,62 %
31.07.2017 04:50 15,9 C 14,4 C 13,3 C 92 % 2 lf 1010,9 hPa 0,0 l/m 0 min 0 min 0 W/m 6,3 km/h (2 Bft) 95,74 %
31.07.2017 04:52 15,8 C 14,4 C 13,3 C 92 % 2 lf 1010,8 hPa 0,0 l/m 0 min 0 min 0 W/m 4,2 km/h (1 Bft) 95,74 %
31.07.2017 04:54 15,8 C 14,4 C 13,3 C 92 % 2 lf 1010,9 hPa 0,0 l/m 0 min 0 min 0 W/m 6,3 km/h (2 Bft) 95,74 %
31.07.2017 04:56 15,8 C 14,4 C 13,3 C 92 % 2 lf 1010,9 hPa 0,0 l/m 0 min 0 min 0 W/m 6,3 km/h (2 Bft) 95,65 %
31.07.2017 04:58 15,8 C 14,4 C 13,3 C 92 % 3 lf 1010,9 hPa 0,0 l/m 0 min 0 min 0 W/m 4,2 km/h (1 Bft) 95,74 %
31.07.2017 05:00 15,7 C 15,0 C 13,3 C 92 % 3 lf 1010,9 hPa 0,0 l/m 0 min 0 min 0 W/m 4,2 km/h (1 Bft) 91,84 %
31.07.2017 05:02 15,7 C 15,0 C 13,3 C 93 % 3 lf 1010,9 hPa 0,0 l/m 0 min 0 min 0 W/m 2,1 km/h (1 Bft) 93,62 %
31.07.2017 05:04 15,7 C 15,0 C 13,3 C 93 % 3 lf 1010,9 hPa 0,0 l/m 0 min 0 min 0 W/m 2,1 km/h (1 Bft) 95,24 %
31.07.2017 05:06 15,7 C 14,4 C 13,3 C 93 % 3 lf 1010,9 hPa 0,0 l/m 0 min 0 min 0 W/m 0,0 km/h (0 Bft) 95,74 %
31.07.2017 05:08 15,7 C 15,0 C 13,3 C 93 % 3 lf 1010,9 hPa 0,0 l/m 0 min 0 min 0 W/m 0,0 km/h (0 Bft) 95,65 %
31.07.2017 05:10 15,7 C 14,4 C 13,3 C 93 % 4 lf 1010,9 hPa 0,0 l/m 0 min 0 min 0 W/m 0,0 km/h (0 Bft) 97,87 %
31.07.2017 05:12 15,7 C 14,4 C 13,3 C 93 % 4 lf 1010,9 hPa 0,0 l/m 0 min 0 min 0 W/m 0,0 km/h (0 Bft) 95,74 %
31.07.2017 05:14 15,6 C 14,4 C 13,3 C 93 % 4 lf 1011,0 hPa 0,0 l/m 0 min 0 min 0 W/m 0,0 km/h (0 Bft) 97,87 %
31.07.2017 05:16 15,6 C 14,4 C 13,3 C 93 % 5 lf 1011,0 hPa 0,0 l/m 0 min 0 min 0 W/m 0,0 km/h (0 Bft) 95,74 %
31.07.2017 05:18 15,6 C 14,4 C 13,3 C 93 % 5 lf 1011,1 hPa 0,0 l/m 0 min 0 min 0 W/m 0,0 km/h (0 Bft) 95,74 %
31.07.2017 05:20 15,6 C 14,4 C 13,3 C 93 % 6 lf 1011,0 hPa 0,0 l/m 0 min 0 min 0 W/m 0,0 km/h (0 Bft) 97,83 %
31.07.2017 05:22 15,6 C 14,4 C 13,3 C 93 % 7 lf 1011,1 hPa 0,0 l/m 0 min 0 min 0 W/m 0,0 km/h (0 Bft) 95,74 %
31.07.2017 05:24 15,6 C 14,4 C 13,3 C 93 % 8 lf 1011,1 hPa 0,0 l/m 0 min 0 min 0 W/m 0,0 km/h (0 Bft) 97,87 %
31.07.2017 05:26 15,6 C 14,4 C 13,3 C 93 % 9 lf 1011,1 hPa 0,0 l/m 0 min 0 min 0 W/m 0,0 km/h (0 Bft) 97,87 %
31.07.2017 05:28 15,6 C 13,9 C 13,3 C 93 % 10 lf 1011,1 hPa 0,0 l/m 0 min 0 min 0 W/m 0,0 km/h (0 Bft) 97,87 %
31.07.2017 05:30 15,5 C 13,9 C 13,3 C 93 % 10 lf 1011,1 hPa 0,0 l/m 0 min 0 min 0 W/m 0,0 km/h (0 Bft) 97,87 %
31.07.2017 05:32 15,5 C 13,9 C 12,8 C 93 % 10 lf 1011,1 hPa 0,0 l/m 0 min 0 min 0 W/m 0,0 km/h (0 Bft) 95,65 %
31.07.2017 05:34 15,5 C 13,9 C 12,8 C 93 % 11 lf 1011,1 hPa 0,0 l/m 0 min 0 min 0 W/m 0,0 km/h (0 Bft) 95,74 %
31.07.2017 05:36 15,4 C 14,4 C 12,8 C 93 % 11 lf 1011,1 hPa 0,0 l/m 0 min 0 min 0 W/m 0,0 km/h (0 Bft) 95,74 %
31.07.2017 05:38 15,4 C 14,4 C 12,8 C 93 % 12 lf 1011,1 hPa 0,0 l/m 0 min 0 min 0 W/m 0,0 km/h (0 Bft) 97,87 %
31.07.2017 05:40 15,4 C 13,9 C 12,8 C 93 % 12 lf 1011,1 hPa 0,0 l/m 0 min 0 min 0 W/m 0,0 km/h (0 Bft) 97,87 %
31.07.2017 05:42 15,4 C 13,9 C 12,8 C 93 % 12 lf 1011,1 hPa 0,0 l/m 0 min 0 min 0 W/m 0,0 km/h (0 Bft) 97,87 %
31.07.2017 05:44 15,4 C 13,9 C 12,8 C 93 % 12 lf 1011,1 hPa 0,0 l/m 0 min 0 min 0 W/m 0,0 km/h (0 Bft) 93,48 %
31.07.2017 05:46 15,3 C 13,9 C 12,8 C 93 % 13 lf 1011,2 hPa 0,0 l/m 0 min 0 min 0 W/m 0,0 km/h (0 Bft) 95,74 %
31.07.2017 05:48 15,3 C 14,4 C 12,8 C 93 % 13 lf 1011,2 hPa 0,0 l/m 0 min 0 min 5 W/m 0,0 km/h (0 Bft) 95,74 %
31.07.2017 05:50 15,3 C 14,4 C 13,3 C 93 % 13 lf 1011,2 hPa 0,0 l/m 0 min 0 min 6 W/m 4,2 km/h (1 Bft) 93,62 %
31.07.2017 05:52 15,3 C 14,4 C 13,3 C 93 % 14 lf 1011,2 hPa 0,0 l/m 0 min 0 min 7 W/m 4,2 km/h (1 Bft) 93,62 %
31.07.2017 05:54 15,3 C 14,4 C 13,3 C 93 % 14 lf 1011,2 hPa 0,0 l/m 0 min 0 min 8 W/m 4,2 km/h (1 Bft) 95,74 %
31.07.2017 05:56 15,3 C 14,4 C 13,3 C 93 % 14 lf 1011,2 hPa 0,0 l/m 0 min 0 min 9 W/m 6,3 km/h (2 Bft) 91,30 %
31.07.2017 05:58 15,2 C 14,4 C 13,3 C 93 % 14 lf 1011,2 hPa 0,0 l/m 0 min 0 min 11 W/m 2,1 km/h (1 Bft) 93,62 %
31.07.2017 06:00 15,2 C 14,4 C 13,3 C 93 % 14 lf 1011,2 hPa 0,0 l/m 0 min 0 min 12 W/m 4,2 km/h (1 Bft) 94,00 %
31.07.2017 06:02 15,2 C 14,4 C 13,3 C 94 % 15 lf 1011,3 hPa 0,0 l/m 0 min 0 min 14 W/m 4,2 km/h (1 Bft) 97,87 %
31.07.2017 06:04 15,2 C 14,4 C 13,3 C 94 % 15 lf 1011,2 hPa 0,0 l/m 0 min 0 min 14 W/m 2,1 km/h (1 Bft) 97,96 %
31.07.2017 06:06 15,2 C 14,4 C 13,3 C 94 % 15 lf 1011,3 hPa 0,0 l/m 0 min 0 min 16 W/m 0,0 km/h (0 Bft) 95,65 %
31.07.2017 06:10 15,2 C 14,4 C 13,3 C 94 % 15 lf 1011,3 hPa 0,0 l/m 0 min 0 min 17 W/m 0,0 km/h (0 Bft) 95,18 %
31.07.2017 06:12 15,2 C 14,4 C 13,3 C 94 % 15 lf 1011,3 hPa 0,0 l/m 2 min 0 min 20 W/m 0,0 km/h (0 Bft) 94,92 %
31.07.2017 06:14 15,2 C 14,4 C 13,3 C 94 % 15 lf 1011,3 hPa 0,0 l/m 2 min 0 min 24 W/m 0,0 km/h (0 Bft) 97,14 %
31.07.2017 06:16 15,2 C 14,4 C 13,3 C 94 % 15 lf 1011,3 hPa 0,0 l/m 2 min 0 min 26 W/m 4,2 km/h (1 Bft) 96,55 %
31.07.2017 06:18 15,2 C 14,4 C 13,3 C 94 % 15 lf 1011,3 hPa 0,0 l/m 2 min 0 min 26 W/m 2,1 km/h (1 Bft) 91,49 %
31.07.2017 06:20 15,2 C 14,4 C 13,3 C 94 % 15 lf 1011,3 hPa 0,0 l/m 2 min 0 min 25 W/m 2,1 km/h (1 Bft) 97,87 %
31.07.2017 06:22 15,2 C 15,0 C 13,3 C 94 % 15 lf 1011,3 hPa 0,0 l/m 2 min 0 min 26 W/m 0,0 km/h (0 Bft) 95,74 %
31.07.2017 06:24 15,2 C 15,0 C 13,3 C 94 % 15 lf 1011,4 hPa 0,0 l/m 2 min 0 min 28 W/m 0,0 km/h (0 Bft) 97,87 %
31.07.2017 06:26 15,2 C 15,0 C 13,9 C 94 % 15 lf 1011,3 hPa 0,0 l/m 2 min 0 min 33 W/m 2,1 km/h (1 Bft) 91,49 %
31.07.2017 06:28 15,2 C 15,0 C 13,9 C 94 % 15 lf 1011,3 hPa 0,0 l/m 2 min 0 min 34 W/m 2,1 km/h (1 Bft) 95,65 %
31.07.2017 06:30 15,2 C 15,0 C 13,9 C 94 % 15 lf 1011,4 hPa 0,0 l/m 2 min 0 min 37 W/m 2,1 km/h (1 Bft) 94,44 %
31.07.2017 06:32 15,2 C 15,0 C 13,9 C 95 % 15 lf 1011,3 hPa 0,0 l/m 2 min 0 min 34 W/m 2,1 km/h (1 Bft) 94,83 %
31.07.2017 06:34 15,2 C 15,0 C 13,9 C 95 % 15 lf 1011,3 hPa 0,0 l/m 0 min 0 min 32 W/m 2,1 km/h (1 Bft) 95,74 %
31.07.2017 06:36 15,2 C 15,0 C 13,9 C 95 % 15 lf 1011,3 hPa 0,0 l/m 0 min 0 min 22 W/m 2,1 km/h (1 Bft) 91,43 %
31.07.2017 06:38 15,2 C 15,0 C 13,9 C 95 % 15 lf 1011,3 hPa 0,0 l/m 0 min 0 min 19 W/m 4,2 km/h (1 Bft) 98,31 %
31.07.2017 06:40 15,2 C 15,0 C 13,9 C 95 % 15 lf 1011,3 hPa 0,0 l/m 0 min 0 min 22 W/m 4,2 km/h (1 Bft) 93,48 %
31.07.2017 06:42 15,2 C 15,0 C 13,9 C 95 % 15 lf 1011,2 hPa 0,0 l/m 0 min 0 min 25 W/m 4,2 km/h (1 Bft) 95,74 %
31.07.2017 06:44 15,3 C 15,0 C 13,9 C 95 % 15 lf 1011,3 hPa 0,0 l/m 0 min 0 min 31 W/m 6,3 km/h (2 Bft) 97,87 %
31.07.2017 06:46 15,3 C 15,0 C 13,9 C 95 % 15 lf 1011,3 hPa 0,0 l/m 0 min 0 min 35 W/m 6,3 km/h (2 Bft) 95,74 %
31.07.2017 06:48 15,3 C 15,6 C 14,4 C 95 % 14 lf 1011,4 hPa 0,0 l/m 0 min 0 min 40 W/m 4,2 km/h (1 Bft) 95,74 %
31.07.2017 06:50 15,3 C 15,6 C 14,4 C 95 % 14 lf 1011,3 hPa 0,0 l/m 0 min 0 min 40 W/m 6,3 km/h (2 Bft) 97,87 %
31.07.2017 06:52 15,3 C 15,6 C 14,4 C 95 % 14 lf 1011,4 hPa 0,0 l/m 0 min 0 min 55 W/m 4,2 km/h (1 Bft) 93,48 %
31.07.2017 06:54 15,4 C 15,6 C 14,4 C 95 % 13 lf 1011,4 hPa 0,0 l/m 2 min 0 min 61 W/m 4,2 km/h (1 Bft) 97,87 %
31.07.2017 06:56 15,4 C 15,6 C 14,4 C 95 % 13 lf 1011,4 hPa 0,0 l/m 2 min 0 min 66 W/m 6,3 km/h (2 Bft) 97,87 %
31.07.2017 06:58 15,4 C 15,6 C 14,4 C 95 % 12 lf 1011,4 hPa 0,0 l/m 2 min 0 min 68 W/m 4,2 km/h (1 Bft) 97,87 %
31.07.2017 07:00 15,4 C 15,6 C 13,9 C 95 % 12 lf 1011,5 hPa 0,0 l/m 2 min 0 min 80 W/m 2,1 km/h (1 Bft) 97,30 %
31.07.2017 07:02 15,4 C 15,6 C 13,9 C 95 % 11 lf 1011,4 hPa 0,0 l/m 2 min 0 min 92 W/m 4,2 km/h (1 Bft) 91,49 %
31.07.2017 07:04 15,4 C 15,6 C 14,4 C 95 % 10 lf 1011,4 hPa 0,0 l/m 2 min 0 min 104 W/m 6,3 km/h (2 Bft) 100,00 %
31.07.2017 07:06 15,5 C 15,6 C 14,4 C 95 % 9 lf 1011,4 hPa 0,0 l/m 2 min 0 min 113 W/m 4,2 km/h (1 Bft) 98,28 %
31.07.2017 07:08 15,5 C 15,6 C 14,4 C 95 % 7 lf 1011,4 hPa 0,0 l/m 2 min 0 min 110 W/m 4,2 km/h (1 Bft) 100,00 %
31.07.2017 07:10 15,5 C 15,6 C 14,4 C 95 % 6 lf 1011,4 hPa 0,0 l/m 2 min 0 min 126 W/m 8,4 km/h (2 Bft) 97,87 %
31.07.2017 07:12 15,5 C 15,6 C 14,4 C 95 % 4 lf 1011,4 hPa 0,0 l/m 2 min 0 min 136 W/m 8,4 km/h (2 Bft) 100,00 %
31.07.2017 07:14 15,5 C 15,6 C 14,4 C 95 % 3 lf 1011,4 hPa 0,0 l/m 2 min 0 min 138 W/m 8,4 km/h (2 Bft) 100,00 %
31.07.2017 07:16 15,6 C 15,6 C 14,4 C 96 % 3 lf 1011,4 hPa 0,0 l/m 2 min 0 min 143 W/m 8,4 km/h (2 Bft) 100,00 %
31.07.2017 07:18 15,6 C 15,6 C 14,4 C 96 % 2 lf 1011,4 hPa 0,0 l/m 2 min 0 min 147 W/m 8,4 km/h (2 Bft) 97,87 %
31.07.2017 07:20 15,6 C 16,1 C 14,4 C 96 % 1 lf 1011,4 hPa 0,0 l/m 2 min 0 min 152 W/m 8,4 km/h (2 Bft) 100,00 %
31.07.2017 07:22 15,6 C 16,1 C 14,4 C 96 % 1 lf 1011,4 hPa 0,0 l/m 2 min 0 min 160 W/m 10,5 km/h (2 Bft) 97,87 %
31.07.2017 07:24 15,6 C 16,1 C 14,4 C 96 % 1 lf 1011,5 hPa 0,0 l/m 2 min 0 min 171 W/m 8,4 km/h (2 Bft) 100,00 %
31.07.2017 07:26 15,7 C 16,1 C 14,4 C 96 % 1 lf 1011,5 hPa 0,0 l/m 2 min 0 min 180 W/m 10,5 km/h (2 Bft) 100,00 %
31.07.2017 07:28 15,7 C 16,1 C 15,0 C 96 % 1 lf 1011,6 hPa 0,0 l/m 2 min 0 min 183 W/m 6,3 km/h (2 Bft) 100,00 %
31.07.2017 07:30 15,7 C 16,1 C 15,0 C 96 % 1 lf 1011,6 hPa 0,0 l/m 2 min 0 min 176 W/m 10,5 km/h (2 Bft) 100,00 %
31.07.2017 07:32 15,7 C 16,1 C 15,0 C 96 % 1 lf 1011,5 hPa 0,0 l/m 2 min 0 min 139 W/m 8,4 km/h (2 Bft) 100,00 %
31.07.2017 07:34 15,7 C 16,1 C 15,0 C 96 % 0 lf 1011,6 hPa 0,0 l/m 0 min 0 min 92 W/m 10,5 km/h (2 Bft) 100,00 %
31.07.2017 07:36 15,7 C 16,1 C 15,0 C 96 % 0 lf 1011,6 hPa 0,0 l/m 2 min 0 min 145 W/m 8,4 km/h (2 Bft) 97,87 %
31.07.2017 07:38 15,7 C 16,1 C 15,0 C 96 % 0 lf 1011,6 hPa 0,0 l/m 2 min 0 min 181 W/m 8,4 km/h (2 Bft) 100,00 %
31.07.2017 07:40 15,7 C 16,1 C 15,0 C 96 % 0 lf 1011,6 hPa 0,0 l/m 2 min 0 min 191 W/m 12,6 km/h (3 Bft) 100,00 %
31.07.2017 07:42 15,7 C 16,1 C 15,0 C 96 % 0 lf 1011,6 hPa 0,0 l/m 2 min 0 min 207 W/m 8,4 km/h (2 Bft) 100,00 %
31.07.2017 07:44 15,7 C 16,1 C 15,0 C 96 % 0 lf 1011,5 hPa 0,0 l/m 2 min 0 min 202 W/m 6,3 km/h (2 Bft) 97,87 %
31.07.2017 07:46 15,7 C 16,1 C 15,0 C 96 % 0 lf 1011,5 hPa 0,0 l/m 2 min 0 min 202 W/m 6,3 km/h (2 Bft) 100,00 %
31.07.2017 07:48 15,7 C 16,1 C 15,0 C 96 % 0 lf 1011,5 hPa 0,0 l/m 2 min 0 min 163 W/m 8,4 km/h (2 Bft) 100,00 %
31.07.2017 07:50 15,7 C 16,7 C 15,0 C 96 % 0 lf 1011,5 hPa 0,0 l/m 2 min 0 min 231 W/m 6,3 km/h (2 Bft) 97,87 %
31.07.2017 07:52 15,7 C 16,7 C 15,0 C 96 % 0 lf 1011,5 hPa 0,0 l/m 2 min 0 min 236 W/m 6,3 km/h (2 Bft) 100,00 %
31.07.2017 07:54 15,7 C 16,7 C 15,0 C 96 % 0 lf 1011,5 hPa 0,0 l/m 2 min 0 min 238 W/m 8,4 km/h (2 Bft) 100,00 %
31.07.2017 07:56 15,7 C 16,7 C 15,0 C 96 % 0 lf 1011,5 hPa 0,0 l/m 2 min 0 min 241 W/m 8,4 km/h (2 Bft) 98,31 %
31.07.2017 07:58 15,8 C 16,7 C 15,0 C 96 % 0 lf 1011,5 hPa 0,0 l/m 2 min 0 min 251 W/m 6,3 km/h (2 Bft) 97,87 %
31.07.2017 08:00 15,8 C 17,2 C 15,0 C 96 % 0 lf 1011,6 hPa 0,0 l/m 2 min 0 min 252 W/m 8,4 km/h (2 Bft) 97,37 %
31.07.2017 08:02 15,8 C 17,2 C 15,6 C 96 % 0 lf 1011,6 hPa 0,0 l/m 2 min 0 min 266 W/m 8,4 km/h (2 Bft) 93,88 %
31.07.2017 08:04 15,9 C 17,2 C 15,6 C 96 % 0 lf 1011,7 hPa 0,0 l/m 2 min 0 min 192 W/m 6,3 km/h (2 Bft) 93,10 %
31.07.2017 08:06 15,9 C 17,8 C 16,1 C 96 % 0 lf 1011,8 hPa 0,0 l/m 2 min 0 min 150 W/m 6,3 km/h (2 Bft) 95,74 %
31.07.2017 08:08 16,0 C 17,8 C 16,1 C 96 % 0 lf 1011,8 hPa 0,0 l/m 2 min 0 min 238 W/m 10,5 km/h (2 Bft) 94,29 %
31.07.2017 08:10 16,1 C 17,8 C 16,7 C 96 % 0 lf 1011,7 hPa 0,0 l/m 0 min 0 min 154 W/m 8,4 km/h (2 Bft) 89,83 %
31.07.2017 08:13 16,1 C 18,3 C 16,7 C 96 % 0 lf 1011,8 hPa 0,0 l/m 3 min 0 min 176 W/m 8,4 km/h (2 Bft) 95,71 %
31.07.2017 08:14 16,2 C 18,3 C 16,7 C 96 % 0 lf 1011,8 hPa 0,0 l/m 1 min 0 min 179 W/m 6,3 km/h (2 Bft) 91,30 %
31.07.2017 08:16 16,2 C 18,3 C 17,2 C 96 % 0 lf 1011,8 hPa 0,0 l/m 2 min 0 min 208 W/m 8,4 km/h (2 Bft) 95,74 %
31.07.2017 08:18 16,2 C 18,3 C 17,2 C 96 % 0 lf 1011,9 hPa 0,0 l/m 2 min 0 min 297 W/m 10,5 km/h (2 Bft) 95,74 %
31.07.2017 08:20 16,3 C 18,9 C 17,2 C 96 % 0 lf 1011,9 hPa 0,0 l/m 2 min 0 min 369 W/m 4,2 km/h (1 Bft) 95,74 %
31.07.2017 08:22 16,3 C 18,9 C 17,2 C 96 % 0 lf 1011,9 hPa 0,0 l/m 2 min 0 min 367 W/m 14,6 km/h (3 Bft) 91,49 %
31.07.2017 08:24 16,4 C 18,9 C 17,2 C 95 % 0 lf 1011,9 hPa 0,0 l/m 2 min 0 min 255 W/m 16,7 km/h (3 Bft) 93,62 %
31.07.2017 08:26 16,3 C 18,9 C 16,7 C 95 % 0 lf 1011,9 hPa 0,0 l/m 0 min 0 min 172 W/m 14,6 km/h (3 Bft) 88,57 %
31.07.2017 08:28 16,3 C 18,9 C 16,7 C 95 % 0 lf 1011,9 hPa 0,0 l/m 0 min 0 min 99 W/m 16,7 km/h (3 Bft) 91,38 %
31.07.2017 08:30 16,3 C 18,9 C 16,7 C 94 % 0 lf 1011,9 hPa 0,0 l/m 0 min 0 min 119 W/m 16,7 km/h (3 Bft) 91,43 %
31.07.2017 08:32 16,4 C 19,4 C 16,7 C 93 % 0 lf 1012,0 hPa 0,0 l/m 2 min 0 min 352 W/m 18,8 km/h (3 Bft) 93,22 %
31.07.2017 08:34 16,5 C 19,4 C 16,7 C 92 % 0 lf 1012,0 hPa 0,0 l/m 2 min 0 min 257 W/m 14,6 km/h (3 Bft) 94,29 %
31.07.2017 08:36 16,6 C 19,4 C 17,2 C 91 % 0 lf 1012,0 hPa 0,0 l/m 2 min 0 min 292 W/m 16,7 km/h (3 Bft) 93,22 %
31.07.2017 08:38 16,7 C 21,7 C 17,2 C 90 % 0 lf 1012,0 hPa 0,0 l/m 2 min 0 min 350 W/m 10,5 km/h (2 Bft) 94,29 %
31.07.2017 08:40 16,8 C 22,8 C 17,2 C 89 % 0 lf 1012,0 hPa 0,0 l/m 2 min 0 min 384 W/m 16,7 km/h (3 Bft) 89,13 %
31.07.2017 08:42 17,0 C 22,8 C 17,2 C 88 % 0 lf 1012,0 hPa 0,0 l/m 2 min 0 min 365 W/m 14,6 km/h (3 Bft) 88,14 %
31.07.2017 08:44 17,2 C 22,2 C 17,8 C 87 % 0 lf 1012,0 hPa 0,0 l/m 0 min 0 min 193 W/m 14,6 km/h (3 Bft) 91,43 %
31.07.2017 08:46 17,3 C 22,2 C 17,8 C 85 % 0 lf 1012,0 hPa 0,0 l/m 2 min 0 min 225 W/m 23,0 km/h (4 Bft) 93,62 %
31.07.2017 08:48 17,4 C 22,8 C 17,8 C 85 % 0 lf 1012,0 hPa 0,0 l/m 2 min 0 min 265 W/m 14,6 km/h (3 Bft) 91,49 %
31.07.2017 08:50 17,6 C 22,8 C 17,8 C 83 % 0 lf 1012,0 hPa 0,0 l/m 2 min 0 min 310 W/m 23,0 km/h (4 Bft) 91,53 %
31.07.2017 08:52 17,7 C 23,3 C 17,8 C 83 % 0 lf 1011,9 hPa 0,0 l/m 2 min 0 min 331 W/m 23,0 km/h (4 Bft) 94,12 %
31.07.2017 08:54 17,9 C 24,4 C 18,3 C 82 % 0 lf 1011,9 hPa 0,0 l/m 2 min 0 min 369 W/m 10,5 km/h (2 Bft) 91,49 %
31.07.2017 08:56 18,0 C 23,9 C 18,3 C 82 % 0 lf 1012,0 hPa 0,0 l/m 2 min 0 min 377 W/m 16,7 km/h (3 Bft) 93,62 %
31.07.2017 08:58 18,1 C 24,4 C 18,3 C 81 % 0 lf 1012,0 hPa 0,0 l/m 2 min 0 min 343 W/m 12,6 km/h (3 Bft) 93,62 %
31.07.2017 09:00 18,3 C 24,4 C 18,3 C 81 % 0 lf 1012,0 hPa 0,0 l/m 2 min 0 min 423 W/m 16,7 km/h (3 Bft) 92,86 %
31.07.2017 09:02 18,4 C 23,9 C 18,9 C 80 % 0 lf 1011,9 hPa 0,0 l/m 2 min 0 min 249 W/m 10,5 km/h (2 Bft) 94,83 %
31.07.2017 09:04 18,6 C 25,6 C 18,9 C 80 % 0 lf 1012,0 hPa 0,0 l/m 2 min 0 min 243 W/m 16,7 km/h (3 Bft) 92,11 %
31.07.2017 09:06 18,7 C 25,0 C 18,9 C 79 % 0 lf 1012,1 hPa 0,0 l/m 2 min 0 min 301 W/m 18,8 km/h (3 Bft) 93,62 %
31.07.2017 09:08 18,8 C 24,4 C 18,9 C 79 % 0 lf 1012,2 hPa 0,0 l/m 2 min 0 min 339 W/m 20,9 km/h (4 Bft) 95,74 %
31.07.2017 09:10 19,0 C 25,0 C 18,9 C 79 % 0 lf 1012,2 hPa 0,0 l/m 2 min 0 min 412 W/m 12,6 km/h (3 Bft) 96,61 %
31.07.2017 09:12 19,1 C 26,7 C 18,9 C 78 % 0 lf 1012,3 hPa 0,0 l/m 2 min 0 min 420 W/m 18,8 km/h (3 Bft) 95,65 %
31.07.2017 09:14 19,2 C 25,6 C 19,4 C 77 % 0 lf 1012,3 hPa 0,0 l/m 2 min 0 min 383 W/m 25,1 km/h (4 Bft) 94,44 %
31.07.2017 09:16 19,3 C 24,4 C 19,4 C 77 % 0 lf 1012,2 hPa 0,0 l/m 2 min 0 min 312 W/m 27,2 km/h (4 Bft) 98,28 %
31.07.2017 09:18 19,4 C 24,4 C 19,4 C 76 % 0 lf 1012,2 hPa 0,0 l/m 2 min 0 min 337 W/m 20,9 km/h (4 Bft) 97,87 %
31.07.2017 09:20 19,6 C 25,0 C 19,4 C 76 % 0 lf 1012,3 hPa 0,0 l/m 2 min 0 min 340 W/m 18,8 km/h (3 Bft) 97,87 %
31.07.2017 09:22 19,6 C 24,4 C 20,0 C 76 % 0 lf 1012,3 hPa 0,0 l/m 2 min 0 min 327 W/m 16,7 km/h (3 Bft) 95,74 %
31.07.2017 09:24 19,7 C 23,3 C 19,4 C 76 % 0 lf 1012,3 hPa 0,0 l/m 2 min 0 min 264 W/m 18,8 km/h (3 Bft) 97,14 %
31.07.2017 09:26 19,7 C 23,3 C 19,4 C 76 % 0 lf 1012,4 hPa 0,0 l/m 2 min 0 min 256 W/m 27,2 km/h (4 Bft) 95,74 %
31.07.2017 09:28 19,8 C 23,3 C 20,0 C 75 % 0 lf 1012,5 hPa 0,0 l/m 2 min 0 min 378 W/m 20,9 km/h (4 Bft) 97,83 %
31.07.2017 09:30 19,8 C 23,9 C 20,0 C 75 % 0 lf 1012,4 hPa 0,0 l/m 2 min 0 min 437 W/m 18,8 km/h (3 Bft) 97,87 %
31.07.2017 09:32 19,9 C 24,4 C 20,0 C 75 % 0 lf 1012,4 hPa 0,0 l/m 2 min 0 min 421 W/m 20,9 km/h (4 Bft) 98,31 %
31.07.2017 09:34 19,9 C 25,0 C 20,0 C 74 % 0 lf 1012,5 hPa 0,0 l/m 2 min 0 min 351 W/m 23,0 km/h (4 Bft) 95,74 %
31.07.2017 09:36 19,9 C 25,6 C 20,6 C 74 % 0 lf 1012,5 hPa 0,0 l/m 2 min 0 min 463 W/m 18,8 km/h (3 Bft) 100,00 %
31.07.2017 09:38 20,1 C 25,6 C 20,6 C 74 % 0 lf 1012,6 hPa 0,0 l/m 2 min 0 min 509 W/m 33,5 km/h (5 Bft) 100,00 %
31.07.2017 09:40 20,1 C 26,1 C 20,6 C 73 % 0 lf 1012,5 hPa 0,0 l/m 2 min 0 min 528 W/m 20,9 km/h (4 Bft) 100,00 %
31.07.2017 09:42 20,2 C 26,7 C 21,7 C 73 % 0 lf 1012,6 hPa 0,0 l/m 2 min 0 min 527 W/m 23,0 km/h (4 Bft) 96,61 %
31.07.2017 09:44 20,3 C 27,2 C 23,3 C 72 % 0 lf 1012,5 hPa 0,0 l/m 2 min 0 min 521 W/m 18,8 km/h (3 Bft) 100,00 %
31.07.2017 09:46 20,3 C 26,7 C 23,9 C 72 % 0 lf 1012,6 hPa 0,0 l/m 2 min 0 min 560 W/m 25,1 km/h (4 Bft) 97,87 %
31.07.2017 09:48 20,4 C 26,7 C 23,9 C 72 % 0 lf 1012,6 hPa 0,0 l/m 2 min 0 min 498 W/m 20,9 km/h (4 Bft) 97,87 %
31.07.2017 09:50 20,5 C 26,1 C 23,3 C 72 % 0 lf 1012,5 hPa 0,0 l/m 2 min 0 min 416 W/m 23,0 km/h (4 Bft) 100,00 %
31.07.2017 09:52 20,6 C 26,7 C 23,9 C 71 % 0 lf 1012,6 hPa 0,0 l/m 2 min 0 min 484 W/m 23,0 km/h (4 Bft) 97,87 %
31.07.2017 09:54 20,6 C 28,3 C 23,9 C 71 % 0 lf 1012,6 hPa 0,0 l/m 2 min 0 min 582 W/m 23,0 km/h (4 Bft) 100,00 %
31.07.2017 09:56 20,7 C 27,2 C 23,9 C 71 % 0 lf 1012,7 hPa 0,0 l/m 2 min 0 min 542 W/m 23,0 km/h (4 Bft) 100,00 %
31.07.2017 09:58 20,7 C 27,2 C 23,9 C 71 % 0 lf 1012,6 hPa 0,0 l/m 2 min 0 min 475 W/m 16,7 km/h (3 Bft) 100,00 %
31.07.2017 10:00 20,8 C 28,9 C 25,0 C 71 % 0 lf 1012,7 hPa 0,0 l/m 2 min 0 min 485 W/m 10,5 km/h (2 Bft) 100,00 %
31.07.2017 10:02 20,9 C 27,8 C 25,0 C 71 % 0 lf 1012,6 hPa 0,0 l/m 2 min 0 min 498 W/m 18,8 km/h (3 Bft) 97,83 %
31.07.2017 10:04 20,9 C 26,7 C 24,4 C 71 % 0 lf 1012,7 hPa 0,0 l/m 2 min 0 min 486 W/m 31,4 km/h (5 Bft) 100,00 %
31.07.2017 10:06 21,0 C 25,6 C 23,9 C 69 % 0 lf 1012,7 hPa 0,0 l/m 2 min 0 min 445 W/m 33,5 km/h (5 Bft) 97,87 %
31.07.2017 10:08 21,0 C 24,4 C 23,3 C 69 % 0 lf 1012,7 hPa 0,0 l/m 2 min 0 min 395 W/m 23,0 km/h (4 Bft) 97,87 %
31.07.2017 10:10 21,0 C 26,1 C 23,9 C 70 % 0 lf 1012,7 hPa 0,0 l/m 2 min 0 min 500 W/m 16,7 km/h (3 Bft) 95,65 %
31.07.2017 10:12 21,1 C 26,7 C 23,9 C 70 % 0 lf 1012,7 hPa 0,0 l/m 2 min 0 min 554 W/m 23,0 km/h (4 Bft) 97,87 %
31.07.2017 10:14 21,1 C 26,7 C 23,9 C 69 % 0 lf 1012,6 hPa 0,0 l/m 2 min 0 min 507 W/m 29,3 km/h (5 Bft) 100,00 %
31.07.2017 10:16 21,1 C 26,1 C 23,3 C 68 % 0 lf 1012,6 hPa 0,0 l/m 2 min 0 min 477 W/m 27,2 km/h (4 Bft) 97,14 %
31.07.2017 10:18 21,1 C 26,1 C 24,4 C 68 % 0 lf 1012,7 hPa 0,0 l/m 2 min 0 min 545 W/m 23,0 km/h (4 Bft) 100,00 %
31.07.2017 10:20 21,1 C 26,7 C 25,0 C 68 % 0 lf 1012,7 hPa 0,0 l/m 2 min 0 min 641 W/m 18,8 km/h (3 Bft) 100,00 %
31.07.2017 10:22 21,2 C 26,7 C 24,4 C 68 % 0 lf 1012,7 hPa 0,0 l/m 2 min 0 min 505 W/m 25,1 km/h (4 Bft) 97,83 %
31.07.2017 10:24 21,2 C 26,1 C 23,3 C 67 % 0 lf 1012,7 hPa 0,0 l/m 2 min 0 min 388 W/m 23,0 km/h (4 Bft) 100,00 %
31.07.2017 10:26 21,2 C 24,4 C 22,8 C 67 % 0 lf 1012,7 hPa 0,0 l/m 2 min 0 min 385 W/m 27,2 km/h (4 Bft) 100,00 %
31.07.2017 10:28 21,2 C 24,4 C 22,8 C 68 % 0 lf 1012,7 hPa 0,0 l/m 2 min 0 min 405 W/m 16,7 km/h (3 Bft) 100,00 %
31.07.2017 10:30 21,2 C 24,4 C 22,8 C 68 % 0 lf 1012,7 hPa 0,0 l/m 2 min 0 min 406 W/m 25,1 km/h (4 Bft) 97,87 %
31.07.2017 10:32 21,2 C 23,9 C 22,8 C 67 % 0 lf 1012,7 hPa 0,0 l/m 2 min 0 min 419 W/m 20,9 km/h (4 Bft) 100,00 %
31.07.2017 10:34 21,2 C 24,4 C 23,3 C 67 % 0 lf 1012,7 hPa 0,0 l/m 2 min 0 min 470 W/m 20,9 km/h (4 Bft) 95,74 %
31.07.2017 10:37 21,2 C 24,4 C 23,3 C 68 % 0 lf 1012,7 hPa 0,0 l/m 3 min 0 min 438 W/m 23,0 km/h (4 Bft) 98,78 %
31.07.2017 10:38 21,2 C 24,4 C 23,3 C 68 % 0 lf 1012,7 hPa 0,0 l/m 1 min 0 min 429 W/m 23,0 km/h (4 Bft) 100,00 %
31.07.2017 10:40 21,2 C 25,0 C 23,3 C 68 % 0 lf 1012,8 hPa 0,0 l/m 2 min 0 min 460 W/m 23,0 km/h (4 Bft) 95,74 %
31.07.2017 10:42 21,2 C 25,0 C 23,9 C 68 % 0 lf 1012,8 hPa 0,0 l/m 2 min 0 min 560 W/m 20,9 km/h (4 Bft) 94,29 %
31.07.2017 10:44 21,2 C 25,6 C 24,4 C 68 % 0 lf 1012,8 hPa 0,0 l/m 2 min 0 min 530 W/m 16,7 km/h (3 Bft) 94,92 %
31.07.2017 10:46 21,3 C 26,1 C 24,4 C 68 % 0 lf 1012,7 hPa 0,0 l/m 2 min 0 min 518 W/m 20,9 km/h (4 Bft) 97,14 %
31.07.2017 10:50 21,4 C 26,1 C 25,0 C 70 % 0 lf 1012,8 hPa 0,0 l/m 4 min 0 min 536 W/m 23,0 km/h (4 Bft) 95,24 %
31.07.2017 10:52 21,5 C 27,2 C 25,6 C 68 % 0 lf 1012,8 hPa 0,0 l/m 2 min 0 min 549 W/m 20,9 km/h (4 Bft) 97,87 %
31.07.2017 10:54 21,6 C 27,8 C 26,1 C 69 % 0 lf 1012,9 hPa 0,0 l/m 2 min 0 min 576 W/m 18,8 km/h (3 Bft) 95,74 %
31.07.2017 10:56 21,7 C 29,4 C 27,8 C 68 % 0 lf 1012,9 hPa 0,0 l/m 2 min 0 min 719 W/m 20,9 km/h (4 Bft) 95,74 %
31.07.2017 10:58 21,8 C 30,6 C 27,8 C 68 % 0 lf 1012,8 hPa 0,0 l/m 2 min 0 min 713 W/m 18,8 km/h (3 Bft) 95,74 %
31.07.2017 11:00 22,0 C 31,7 C 28,9 C 67 % 0 lf 1012,9 hPa 0,0 l/m 2 min 0 min 818 W/m 27,2 km/h (4 Bft) 95,24 %
31.07.2017 11:02 22,2 C 31,1 C 30,0 C 66 % 0 lf 1012,9 hPa 0,0 l/m 2 min 0 min 845 W/m 23,0 km/h (4 Bft) 92,00 %
31.07.2017 11:04 22,3 C 31,1 C 30,0 C 65 % 0 lf 1013,0 hPa 0,0 l/m 2 min 0 min 811 W/m 23,0 km/h (4 Bft) 95,74 %
31.07.2017 11:06 22,5 C 30,6 C 29,4 C 66 % 0 lf 1013,0 hPa 0,0 l/m 2 min 0 min 736 W/m 18,8 km/h (3 Bft) 97,87 %
31.07.2017 11:08 22,6 C 30,0 C 27,8 C 65 % 0 lf 1013,0 hPa 0,0 l/m 2 min 0 min 559 W/m 29,3 km/h (5 Bft) 95,74 %
31.07.2017 11:10 22,7 C 29,4 C 28,3 C 65 % 0 lf 1013,0 hPa 0,0 l/m 2 min 0 min 618 W/m 14,6 km/h (3 Bft) 93,48 %
31.07.2017 11:12 22,7 C 28,9 C 28,3 C 65 % 0 lf 1012,9 hPa 0,0 l/m 2 min 0 min 826 W/m 18,8 km/h (3 Bft) 91,67 %
31.07.2017 11:14 22,8 C 27,2 C 27,2 C 64 % 0 lf 1012,9 hPa 0,0 l/m 2 min 0 min 503 W/m 20,9 km/h (4 Bft) 93,62 %
31.07.2017 11:16 22,8 C 27,2 C 27,2 C 64 % 0 lf 1013,0 hPa 0,0 l/m 2 min 0 min 488 W/m 23,0 km/h (4 Bft) 91,49 %
31.07.2017 11:18 22,8 C 28,3 C 26,7 C 65 % 0 lf 1013,0 hPa 0,0 l/m 2 min 0 min 487 W/m 16,7 km/h (3 Bft) 95,74 %
31.07.2017 11:20 22,8 C 27,8 C 27,2 C 65 % 0 lf 1013,2 hPa 0,0 l/m 2 min 0 min 608 W/m 18,8 km/h (3 Bft) 95,74 %
31.07.2017 11:22 22,9 C 27,2 C 26,7 C 64 % 0 lf 1013,1 hPa 0,0 l/m 2 min 0 min 612 W/m 20,9 km/h (4 Bft) 95,65 %
31.07.2017 11:24 22,9 C 27,2 C 26,1 C 64 % 0 lf 1013,0 hPa 0,0 l/m 2 min 0 min 559 W/m 20,9 km/h (4 Bft) 97,87 %
31.07.2017 11:26 22,8 C 27,2 C 25,6 C 64 % 0 lf 1012,9 hPa 0,0 l/m 2 min 0 min 602 W/m 25,1 km/h (4 Bft) 95,74 %
31.07.2017 11:28 22,8 C 28,3 C 26,7 C 65 % 0 lf 1013,0 hPa 0,0 l/m 2 min 0 min 695 W/m 16,7 km/h (3 Bft) 97,87 %
31.07.2017 11:30 22,8 C 28,9 C 26,7 C 65 % 0 lf 1013,1 hPa 0,0 l/m 2 min 0 min 642 W/m 18,8 km/h (3 Bft) 97,87 %
31.07.2017 11:32 22,8 C 28,9 C 27,2 C 65 % 0 lf 1013,2 hPa 0,0 l/m 2 min 0 min 599 W/m 18,8 km/h (3 Bft) 93,62 %
31.07.2017 11:34 22,9 C 28,9 C 28,3 C 64 % 0 lf 1013,1 hPa 0,0 l/m 2 min 0 min 599 W/m 18,8 km/h (3 Bft) 95,65 %
31.07.2017 11:36 22,9 C 28,9 C 28,3 C 65 % 0 lf 1013,0 hPa 0,0 l/m 2 min 0 min 569 W/m 18,8 km/h (3 Bft) 97,87 %
31.07.2017 11:38 23,0 C 28,9 C 28,3 C 65 % 0 lf 1013,0 hPa 0,0 l/m 2 min 0 min 599 W/m 18,8 km/h (3 Bft) 95,74 %
31.07.2017 11:40 23,0 C 29,4 C 28,3 C 64 % 0 lf 1013,1 hPa 0,0 l/m 2 min 0 min 754 W/m 20,9 km/h (4 Bft) 95,74 %
31.07.2017 11:42 23,1 C 30,0 C 28,9 C 64 % 0 lf 1013,2 hPa 0,0 l/m 2 min 0 min 791 W/m 25,1 km/h (4 Bft) 97,87 %
31.07.2017 11:44 23,1 C 30,0 C 28,9 C 63 % 0 lf 1013,1 hPa 0,0 l/m 2 min 0 min 727 W/m 23,0 km/h (4 Bft) 95,74 %
31.07.2017 11:46 23,2 C 28,9 C 29,4 C 63 % 0 lf 1013,2 hPa 0,0 l/m 2 min 0 min 801 W/m 25,1 km/h (4 Bft) 95,65 %
31.07.2017 11:48 23,2 C 30,0 C 30,6 C 64 % 0 lf 1013,3 hPa 0,0 l/m 2 min 0 min 1017 W/m 18,8 km/h (3 Bft) 97,87 %
31.07.2017 11:50 23,3 C 31,1 C 31,1 C 63 % 0 lf 1013,1 hPa 0,0 l/m 2 min 0 min 1037 W/m 20,9 km/h (4 Bft) 91,89 %
31.07.2017 11:52 23,4 C 31,1 C 30,0 C 64 % 0 lf 1013,0 hPa 0,0 l/m 2 min 0 min 955 W/m 27,2 km/h (4 Bft) 93,62 %
31.07.2017 11:54 23,4 C 32,2 C 30,6 C 65 % 0 lf 1013,0 hPa 0,0 l/m 2 min 0 min 799 W/m 20,9 km/h (4 Bft) 97,87 %
31.07.2017 11:56 23,6 C 32,2 C 30,0 C 63 % 0 lf 1013,0 hPa 0,0 l/m 2 min 0 min 806 W/m 27,2 km/h (4 Bft) 93,62 %
31.07.2017 11:58 23,6 C 32,8 C 30,0 C 64 % 0 lf 1013,2 hPa 0,0 l/m 2 min 0 min 746 W/m 20,9 km/h (4 Bft) 95,74 %
31.07.2017 12:00 23,7 C 30,6 C 29,4 C 62 % 0 lf 1013,2 hPa 0,0 l/m 2 min 0 min 740 W/m 27,2 km/h (4 Bft) 93,88 %
31.07.2017 12:02 23,7 C 31,7 C 30,0 C 63 % 0 lf 1013,2 hPa 0,0 l/m 2 min 0 min 834 W/m 14,6 km/h (3 Bft) 91,49 %
31.07.2017 12:04 23,7 C 30,6 C 28,9 C 63 % 0 lf 1013,2 hPa 0,0 l/m 2 min 0 min 831 W/m 25,1 km/h (4 Bft) 97,96 %
31.07.2017 12:06 23,7 C 30,0 C 27,8 C 62 % 0 lf 1013,0 hPa 0,0 l/m 2 min 0 min 831 W/m 18,8 km/h (3 Bft) 97,87 %
31.07.2017 12:10 23,7 C 28,9 C 27,8 C 63 % 0 lf 1013,2 hPa 0,0 l/m 4 min 0 min 665 W/m 18,8 km/h (3 Bft) 95,74 %
31.07.2017 12:12 23,7 C 29,4 C 27,8 C 63 % 0 lf 1013,3 hPa 0,0 l/m 2 min 0 min 560 W/m 23,0 km/h (4 Bft) 97,87 %
31.07.2017 12:14 23,7 C 27,2 C 27,8 C 62 % 0 lf 1013,3 hPa 0,0 l/m 2 min 0 min 533 W/m 18,8 km/h (3 Bft) 97,87 %
31.07.2017 12:16 23,6 C 27,8 C 27,8 C 62 % 0 lf 1013,4 hPa 0,0 l/m 2 min 0 min 590 W/m 27,2 km/h (4 Bft) 97,87 %
31.07.2017 12:18 23,6 C 30,0 C 28,9 C 62 % 0 lf 1013,3 hPa 0,0 l/m 2 min 0 min 706 W/m 20,9 km/h (4 Bft) 97,87 %
31.07.2017 12:20 23,6 C 30,0 C 30,6 C 63 % 0 lf 1013,4 hPa 0,0 l/m 2 min 0 min 747 W/m 16,7 km/h (3 Bft) 97,87 %
31.07.2017 12:22 23,7 C 31,1 C 30,6 C 63 % 0 lf 1013,4 hPa 0,0 l/m 2 min 0 min 510 W/m 23,0 km/h (4 Bft) 97,83 %
31.07.2017 12:24 23,7 C 30,6 C 30,6 C 62 % 0 lf 1013,3 hPa 0,0 l/m 2 min 0 min 729 W/m 18,8 km/h (3 Bft) 95,74 %
31.07.2017 12:26 23,8 C 31,1 C 30,6 C 63 % 0 lf 1013,3 hPa 0,0 l/m 2 min 0 min 799 W/m 23,0 km/h (4 Bft) 97,87 %
31.07.2017 12:28 23,9 C 31,7 C 30,6 C 61 % 0 lf 1013,4 hPa 0,0 l/m 2 min 0 min 756 W/m 20,9 km/h (4 Bft) 97,87 %
31.07.2017 12:30 24,0 C 30,6 C 29,4 C 61 % 0 lf 1013,4 hPa 0,0 l/m 2 min 0 min 685 W/m 14,6 km/h (3 Bft) 97,87 %
31.07.2017 12:32 24,1 C 30,0 C 29,4 C 61 % 0 lf 1013,4 hPa 0,0 l/m 2 min 0 min 464 W/m 10,5 km/h (2 Bft) 97,83 %
31.07.2017 12:34 24,1 C 30,6 C 29,4 C 62 % 0 lf 1013,4 hPa 0,0 l/m 2 min 0 min 597 W/m 14,6 km/h (3 Bft) 95,74 %
31.07.2017 12:36 24,1 C 30,0 C 28,3 C 61 % 0 lf 1013,5 hPa 0,0 l/m 2 min 0 min 658 W/m 20,9 km/h (4 Bft) 97,87 %
31.07.2017 12:38 24,1 C 28,3 C 28,3 C 61 % 0 lf 1013,5 hPa 0,0 l/m 2 min 0 min 655 W/m 25,1 km/h (4 Bft) 97,87 %
31.07.2017 12:40 24,1 C 28,9 C 27,8 C 61 % 0 lf 1013,4 hPa 0,0 l/m 2 min 0 min 668 W/m 12,6 km/h (3 Bft) 95,74 %
31.07.2017 12:42 24,1 C 28,3 C 27,8 C 61 % 0 lf 1013,4 hPa 0,0 l/m 2 min 0 min 595 W/m 18,8 km/h (3 Bft) 97,87 %
31.07.2017 12:44 24,1 C 29,4 C 27,2 C 60 % 0 lf 1013,6 hPa 0,0 l/m 2 min 0 min 572 W/m 25,1 km/h (4 Bft) 97,83 %
31.07.2017 12:46 24,1 C 28,3 C 26,7 C 60 % 0 lf 1013,7 hPa 0,0 l/m 2 min 0 min 575 W/m 16,7 km/h (3 Bft) 97,87 %
31.07.2017 12:48 24,1 C 28,3 C 26,7 C 60 % 0 lf 1013,7 hPa 0,0 l/m 2 min 0 min 650 W/m 18,8 km/h (3 Bft) 97,87 %
31.07.2017 12:50 24,0 C 28,3 C 26,1 C 60 % 0 lf 1013,8 hPa 0,0 l/m 2 min 0 min 642 W/m 18,8 km/h (3 Bft) 97,87 %
31.07.2017 12:52 23,9 C 28,3 C 26,1 C 60 % 0 lf 1013,8 hPa 0,0 l/m 2 min 0 min 738 W/m 16,7 km/h (3 Bft) 93,62 %
31.07.2017 12:54 23,9 C 27,8 C 26,1 C 60 % 0 lf 1013,9 hPa 0,0 l/m 2 min 0 min 699 W/m 16,7 km/h (3 Bft) 97,87 %
31.07.2017 12:56 24,0 C 28,3 C 26,7 C 61 % 0 lf 1013,8 hPa 0,0 l/m 0 min 0 min 385 W/m 20,9 km/h (4 Bft) 97,83 %
31.07.2017 12:58 24,0 C 30,0 C 26,7 C 61 % 0 lf 1013,7 hPa 0,0 l/m 2 min 0 min 874 W/m 16,7 km/h (3 Bft) 93,62 %
31.07.2017 13:00 24,1 C 28,9 C 27,2 C 62 % 0 lf 1013,7 hPa 0,0 l/m 2 min 0 min 974 W/m 14,6 km/h (3 Bft) 95,74 %
31.07.2017 13:02 24,1 C 27,2 C 26,7 C 59 % 0 lf 1013,8 hPa 0,0 l/m 2 min 0 min 859 W/m 27,2 km/h (4 Bft) 97,87 %
31.07.2017 13:04 24,1 C 28,3 C 26,7 C 60 % 0 lf 1013,8 hPa 0,0 l/m 2 min 0 min 545 W/m 18,8 km/h (3 Bft) 95,74 %
31.07.2017 13:06 24,1 C 30,6 C 27,8 C 62 % 0 lf 1013,7 hPa 0,0 l/m 2 min 0 min 713 W/m 20,9 km/h (4 Bft) 97,87 %
31.07.2017 13:08 24,2 C 30,6 C 27,8 C 60 % 0 lf 1013,6 hPa 0,0 l/m 2 min 0 min 790 W/m 20,9 km/h (4 Bft) 97,83 %
31.07.2017 13:10 24,3 C 30,6 C 28,3 C 59 % 0 lf 1013,7 hPa 0,0 l/m 2 min 0 min 869 W/m 16,7 km/h (3 Bft) 100,00 %
31.07.2017 13:12 24,3 C 31,1 C 28,9 C 59 % 0 lf 1013,6 hPa 0,0 l/m 2 min 0 min 967 W/m 16,7 km/h (3 Bft) 93,62 %
31.07.2017 13:14 24,4 C 28,9 C 28,3 C 58 % 0 lf 1013,5 hPa 0,0 l/m 2 min 0 min 967 W/m 12,6 km/h (3 Bft) 95,74 %
31.07.2017 13:16 24,4 C 27,8 C 27,8 C 58 % 0 lf 1013,6 hPa 0,0 l/m 2 min 0 min 808 W/m 14,6 km/h (3 Bft) 95,74 %
31.07.2017 13:18 24,4 C 27,8 C 27,8 C 59 % 0 lf 1013,5 hPa 0,0 l/m 2 min 0 min 612 W/m 20,9 km/h (4 Bft) 95,74 %
31.07.2017 13:20 24,4 C 26,7 C 27,2 C 57 % 0 lf 1013,5 hPa 0,0 l/m 2 min 0 min 524 W/m 23,0 km/h (4 Bft) 97,83 %
31.07.2017 13:22 24,3 C 27,2 C 26,7 C 58 % 0 lf 1013,6 hPa 0,0 l/m 2 min 0 min 517 W/m 18,8 km/h (3 Bft) 91,49 %
31.07.2017 13:24 24,3 C 26,7 C 26,1 C 58 % 0 lf 1013,6 hPa 0,0 l/m 0 min 0 min 359 W/m 20,9 km/h (4 Bft) 95,74 %
31.07.2017 13:26 24,3 C 26,1 C 25,6 C 58 % 0 lf 1013,5 hPa 0,0 l/m 0 min 0 min 367 W/m 20,9 km/h (4 Bft) 97,14 %
31.07.2017 13:28 24,1 C 26,1 C 25,6 C 58 % 0 lf 1013,6 hPa 0,0 l/m 2 min 0 min 415 W/m 16,7 km/h (3 Bft) 96,61 %
31.07.2017 13:30 24,1 C 26,1 C 25,6 C 59 % 0 lf 1013,6 hPa 0,0 l/m 2 min 0 min 423 W/m 18,8 km/h (3 Bft) 97,87 %
31.07.2017 13:32 24,0 C 26,1 C 25,6 C 59 % 0 lf 1013,6 hPa 0,0 l/m 2 min 0 min 474 W/m 14,6 km/h (3 Bft) 97,14 %
31.07.2017 13:34 24,0 C 26,7 C 26,1 C 60 % 0 lf 1013,7 hPa 0,0 l/m 2 min 0 min 463 W/m 16,7 km/h (3 Bft) 95,65 %
31.07.2017 13:36 23,9 C 27,8 C 25,6 C 58 % 0 lf 1013,6 hPa 0,0 l/m 2 min 0 min 531 W/m 18,8 km/h (3 Bft) 98,31 %
31.07.2017 13:38 23,9 C 27,8 C 26,1 C 58 % 0 lf 1013,6 hPa 0,0 l/m 2 min 0 min 582 W/m 18,8 km/h (3 Bft) 97,14 %
31.07.2017 13:40 23,9 C 28,3 C 26,1 C 59 % 0 lf 1013,6 hPa 0,0 l/m 2 min 0 min 530 W/m 12,6 km/h (3 Bft) 95,74 %
31.07.2017 13:42 23,9 C 28,9 C 26,1 C 58 % 0 lf 1013,6 hPa 0,0 l/m 2 min 0 min 529 W/m 14,6 km/h (3 Bft) 96,55 %
31.07.2017 13:44 23,9 C 27,8 C 26,1 C 59 % 0 lf 1013,6 hPa 0,0 l/m 2 min 0 min 594 W/m 20,9 km/h (4 Bft) 97,87 %
31.07.2017 13:46 23,9 C 28,9 C 26,1 C 60 % 0 lf 1013,5 hPa 0,0 l/m 2 min 0 min 626 W/m 14,6 km/h (3 Bft) 97,14 %
31.07.2017 13:48 23,9 C 29,4 C 26,7 C 58 % 0 lf 1013,5 hPa 0,0 l/m 2 min 0 min 846 W/m 12,6 km/h (3 Bft) 97,87 %
31.07.2017 13:50 24,1 C 31,1 C 27,2 C 61 % 0 lf 1013,6 hPa 0,0 l/m 2 min 0 min 934 W/m 18,8 km/h (3 Bft) 98,31 %
31.07.2017 13:52 24,2 C 30,6 C 26,7 C 58 % 0 lf 1013,5 hPa 0,0 l/m 2 min 0 min 920 W/m 12,6 km/h (3 Bft) 97,87 %
31.07.2017 13:54 24,2 C 30,6 C 27,2 C 58 % 0 lf 1013,5 hPa 0,0 l/m 2 min 0 min 859 W/m 14,6 km/h (3 Bft) 97,14 %
31.07.2017 13:56 24,3 C 31,1 C 27,8 C 60 % 0 lf 1013,5 hPa 0,0 l/m 2 min 0 min 856 W/m 14,6 km/h (3 Bft) 100,00 %
31.07.2017 13:58 24,4 C 29,4 C 27,8 C 59 % 0 lf 1013,5 hPa 0,0 l/m 2 min 0 min 779 W/m 14,6 km/h (3 Bft) 96,55 %
31.07.2017 14:00 24,6 C 30,0 C 28,3 C 58 % 0 lf 1013,4 hPa 0,0 l/m 2 min 0 min 938 W/m 23,0 km/h (4 Bft) 97,37 %
31.07.2017 14:02 24,7 C 30,0 C 28,3 C 56 % 0 lf 1013,5 hPa 0,0 l/m 2 min 0 min 975 W/m 16,7 km/h (3 Bft) 97,96 %
31.07.2017 14:04 24,7 C 30,0 C 28,3 C 55 % 0 lf 1013,6 hPa 0,0 l/m 2 min 0 min 890 W/m 23,0 km/h (4 Bft) 100,00 %
31.07.2017 14:06 24,8 C 30,6 C 29,4 C 56 % 0 lf 1013,5 hPa 0,0 l/m 2 min 0 min 940 W/m 18,8 km/h (3 Bft) 100,00 %
31.07.2017 14:08 24,9 C 31,1 C 30,0 C 56 % 0 lf 1013,4 hPa 0,0 l/m 2 min 0 min 905 W/m 10,5 km/h (2 Bft) 100,00 %
31.07.2017 14:10 24,9 C 30,6 C 30,0 C 55 % 0 lf 1013,4 hPa 0,0 l/m 2 min 0 min 804 W/m 12,6 km/h (3 Bft) 100,00 %
31.07.2017 14:12 25,1 C 30,0 C 30,6 C 55 % 0 lf 1013,4 hPa 0,0 l/m 2 min 0 min 734 W/m 16,7 km/h (3 Bft) 100,00 %
31.07.2017 14:14 25,1 C 31,1 C 31,7 C 56 % 0 lf 1013,5 hPa 0,0 l/m 2 min 0 min 930 W/m 25,1 km/h (4 Bft) 97,87 %
31.07.2017 14:16 25,3 C 32,2 C 32,2 C 54 % 0 lf 1013,5 hPa 0,0 l/m 2 min 0 min 946 W/m 18,8 km/h (3 Bft) 97,87 %
31.07.2017 14:18 25,4 C 32,2 C 32,2 C 55 % 0 lf 1013,5 hPa 0,0 l/m 2 min 0 min 888 W/m 20,9 km/h (4 Bft) 100,00 %
31.07.2017 14:20 25,5 C 32,8 C 33,3 C 56 % 0 lf 1013,5 hPa 0,0 l/m 2 min 0 min 887 W/m 16,7 km/h (3 Bft) 100,00 %
31.07.2017 14:22 25,6 C 32,2 C 32,8 C 55 % 0 lf 1013,5 hPa 0,0 l/m 2 min 0 min 759 W/m 12,6 km/h (3 Bft) 100,00 %
31.07.2017 14:24 25,6 C 31,1 C 32,2 C 51 % 0 lf 1013,5 hPa 0,0 l/m 2 min 0 min 715 W/m 18,8 km/h (3 Bft) 95,74 %
31.07.2017 14:26 25,6 C 31,7 C 32,2 C 51 % 0 lf 1013,5 hPa 0,0 l/m 2 min 0 min 776 W/m 20,9 km/h (4 Bft) 95,74 %
31.07.2017 14:28 25,7 C 32,2 C 33,3 C 53 % 0 lf 1013,5 hPa 0,0 l/m 2 min 0 min 837 W/m 14,6 km/h (3 Bft) 97,87 %
31.07.2017 14:30 25,7 C 32,2 C 33,3 C 53 % 0 lf 1013,6 hPa 0,0 l/m 2 min 0 min 871 W/m 18,8 km/h (3 Bft) 97,87 %
31.07.2017 14:32 25,8 C 32,2 C 33,3 C 52 % 0 lf 1013,6 hPa 0,0 l/m 2 min 0 min 854 W/m 14,6 km/h (3 Bft) 93,48 %
31.07.2017 14:34 25,8 C 31,1 C 33,3 C 52 % 0 lf 1013,7 hPa 0,0 l/m 2 min 0 min 886 W/m 20,9 km/h (4 Bft) 97,87 %
31.07.2017 14:36 25,8 C 32,8 C 34,4 C 53 % 0 lf 1013,6 hPa 0,0 l/m 2 min 0 min 918 W/m 14,6 km/h (3 Bft) 97,87 %
31.07.2017 14:38 25,9 C 32,8 C 34,4 C 53 % 0 lf 1013,6 hPa 0,0 l/m 2 min 0 min 881 W/m 10,5 km/h (2 Bft) 97,87 %
31.07.2017 14:40 26,0 C 33,9 C 33,9 C 53 % 0 lf 1013,5 hPa 0,0 l/m 2 min 0 min 870 W/m 8,4 km/h (2 Bft) 97,87 %
31.07.2017 14:42 26,1 C 32,8 C 34,4 C 53 % 0 lf 1013,6 hPa 0,0 l/m 2 min 0 min 825 W/m 20,9 km/h (4 Bft) 97,83 %
31.07.2017 14:44 26,1 C 31,7 C 33,3 C 50 % 0 lf 1013,6 hPa 0,0 l/m 2 min 0 min 829 W/m 20,9 km/h (4 Bft) 93,62 %
31.07.2017 14:46 26,1 C 31,7 C 33,3 C 51 % 0 lf 1013,5 hPa 0,0 l/m 2 min 0 min 848 W/m 14,6 km/h (3 Bft) 97,87 %
31.07.2017 14:48 26,2 C 31,1 C 33,3 C 51 % 0 lf 1013,5 hPa 0,0 l/m 2 min 0 min 696 W/m 8,4 km/h (2 Bft) 97,87 %
31.07.2017 14:50 26,2 C 31,1 C 32,8 C 51 % 0 lf 1013,5 hPa 0,0 l/m 2 min 0 min 661 W/m 10,5 km/h (2 Bft) 97,87 %
31.07.2017 14:52 26,2 C 32,2 C 34,4 C 51 % 0 lf 1013,5 hPa 0,0 l/m 2 min 0 min 797 W/m 12,6 km/h (3 Bft) 97,87 %
31.07.2017 14:54 26,3 C 32,2 C 35,0 C 52 % 0 lf 1013,5 hPa 0,0 l/m 2 min 0 min 838 W/m 14,6 km/h (3 Bft) 97,83 %
31.07.2017 14:56 26,4 C 32,2 C 35,0 C 52 % 0 lf 1013,4 hPa 0,0 l/m 2 min 0 min 836 W/m 14,6 km/h (3 Bft) 95,74 %
31.07.2017 14:58 26,4 C 32,2 C 34,4 C 52 % 0 lf 1013,5 hPa 0,0 l/m 2 min 0 min 834 W/m 16,7 km/h (3 Bft) 93,62 %
31.07.2017 15:00 26,5 C 32,2 C 33,9 C 51 % 0 lf 1013,4 hPa 0,0 l/m 2 min 0 min 832 W/m 12,6 km/h (3 Bft) 95,92 %
31.07.2017 15:02 26,5 C 30,6 C 33,3 C 49 % 0 lf 1013,4 hPa 0,0 l/m 2 min 0 min 830 W/m 8,4 km/h (2 Bft) 95,74 %
31.07.2017 15:04 26,5 C 28,9 C 32,8 C 49 % 0 lf 1013,4 hPa 0,0 l/m 2 min 0 min 829 W/m 14,6 km/h (3 Bft) 95,74 %
31.07.2017 15:06 26,4 C 28,9 C 31,7 C 50 % 0 lf 1013,5 hPa 0,0 l/m 2 min 0 min 827 W/m 14,6 km/h (3 Bft) 95,74 %
31.07.2017 15:08 26,4 C 27,2 C 30,6 C 50 % 0 lf 1013,5 hPa 0,0 l/m 2 min 0 min 825 W/m 14,6 km/h (3 Bft) 95,65 %
31.07.2017 15:10 26,3 C 28,3 C 31,1 C 50 % 0 lf 1013,3 hPa 0,0 l/m 2 min 0 min 823 W/m 10,5 km/h (2 Bft) 95,74 %
31.07.2017 15:12 26,3 C 30,0 C 32,2 C 51 % 0 lf 1013,3 hPa 0,0 l/m 2 min 0 min 820 W/m 8,4 km/h (2 Bft) 89,36 %
31.07.2017 15:14 26,3 C 30,0 C 33,9 C 52 % 0 lf 1013,4 hPa 0,0 l/m 2 min 0 min 818 W/m 10,5 km/h (2 Bft) 91,49 %
31.07.2017 15:16 26,3 C 31,7 C 35,6 C 52 % 0 lf 1013,4 hPa 0,0 l/m 2 min 0 min 816 W/m 14,6 km/h (3 Bft) 93,62 %
31.07.2017 15:18 26,3 C 31,7 C 36,1 C 53 % 0 lf 1013,4 hPa 0,0 l/m 2 min 0 min 814 W/m 25,1 km/h (4 Bft) 93,62 %
31.07.2017 15:20 26,3 C 30,0 C 33,9 C 50 % 0 lf 1013,4 hPa 0,0 l/m 2 min 0 min 812 W/m 20,9 km/h (4 Bft) 93,48 %
31.07.2017 15:22 26,3 C 29,4 C 33,9 C 50 % 0 lf 1013,4 hPa 0,0 l/m 2 min 0 min 809 W/m 14,6 km/h (3 Bft) 96,00 %
31.07.2017 15:24 26,3 C 30,6 C 35,0 C 51 % 0 lf 1013,5 hPa 0,0 l/m 2 min 0 min 807 W/m 16,7 km/h (3 Bft) 93,62 %
31.07.2017 15:26 26,3 C 29,4 C 35,0 C 50 % 0 lf 1013,6 hPa 0,0 l/m 2 min 0 min 805 W/m 16,7 km/h (3 Bft) 93,62 %
31.07.2017 15:28 26,3 C 30,0 C 34,4 C 51 % 0 lf 1013,4 hPa 0,0 l/m 2 min 0 min 802 W/m 14,6 km/h (3 Bft) 95,74 %
31.07.2017 15:30 26,3 C 29,4 C 32,8 C 50 % 0 lf 1013,3 hPa 0,0 l/m 2 min 0 min 800 W/m 14,6 km/h (3 Bft) 95,65 %
31.07.2017 15:32 26,2 C 26,7 C 30,6 C 49 % 0 lf 1013,3 hPa 0,0 l/m 2 min 0 min 940 W/m 16,7 km/h (3 Bft) 97,87 %
31.07.2017 15:34 26,2 C 27,2 C 29,4 C 50 % 0 lf 1013,2 hPa 0,0 l/m 2 min 0 min 874 W/m 14,6 km/h (3 Bft) 95,74 %
31.07.2017 15:36 26,0 C 26,7 C 28,9 C 50 % 0 lf 1013,3 hPa 0,0 l/m 2 min 0 min 858 W/m 14,6 km/h (3 Bft) 97,87 %
31.07.2017 15:38 25,9 C 26,7 C 28,3 C 50 % 0 lf 1013,3 hPa 0,0 l/m 2 min 0 min 914 W/m 6,3 km/h (2 Bft) 95,74 %
31.07.2017 15:40 25,9 C 26,1 C 27,8 C 50 % 0 lf 1013,3 hPa 0,0 l/m 2 min 0 min 873 W/m 12,6 km/h (3 Bft) 93,62 %
31.07.2017 15:42 25,8 C 26,1 C 27,8 C 50 % 0 lf 1013,4 hPa 0,0 l/m 2 min 0 min 881 W/m 14,6 km/h (3 Bft) 100,00 %
31.07.2017 15:44 25,7 C 26,7 C 28,3 C 51 % 0 lf 1013,4 hPa 0,0 l/m 2 min 0 min 917 W/m 14,6 km/h (3 Bft) 95,74 %
31.07.2017 15:46 25,7 C 26,7 C 27,8 C 51 % 0 lf 1013,4 hPa 0,0 l/m 2 min 0 min 921 W/m 20,9 km/h (4 Bft) 97,87 %
31.07.2017 15:48 25,6 C 27,2 C 27,8 C 51 % 0 lf 1013,3 hPa 0,0 l/m 2 min 0 min 965 W/m 12,6 km/h (3 Bft) 93,62 %
31.07.2017 15:50 25,6 C 27,8 C 28,9 C 51 % 0 lf 1013,1 hPa 0,0 l/m 2 min 0 min 773 W/m 20,9 km/h (4 Bft) 95,74 %
31.07.2017 15:52 25,6 C 29,4 C 31,1 C 52 % 0 lf 1013,1 hPa 0,0 l/m 2 min 0 min 770 W/m 10,5 km/h (2 Bft) 95,65 %
31.07.2017 15:54 25,6 C 28,9 C 31,1 C 51 % 0 lf 1013,1 hPa 0,0 l/m 2 min 0 min 767 W/m 14,6 km/h (3 Bft) 95,74 %
31.07.2017 15:56 25,6 C 28,3 C 30,0 C 51 % 0 lf 1013,1 hPa 0,0 l/m 2 min 0 min 764 W/m 16,7 km/h (3 Bft) 95,74 %
31.07.2017 15:58 25,6 C 28,3 C 31,1 C 52 % 0 lf 1013,0 hPa 0,0 l/m 2 min 0 min 918 W/m 16,7 km/h (3 Bft) 95,74 %
31.07.2017 16:00 25,6 C 28,9 C 31,1 C 51 % 0 lf 1013,0 hPa 0,0 l/m 2 min 0 min 981 W/m 8,4 km/h (2 Bft) 89,36 %
31.07.2017 16:02 25,6 C 27,8 C 30,0 C 53 % 0 lf 1013,1 hPa 0,0 l/m 2 min 0 min 904 W/m 10,5 km/h (2 Bft) 95,24 %
31.07.2017 16:04 25,6 C 27,2 C 28,9 C 52 % 0 lf 1013,1 hPa 0,0 l/m 2 min 0 min 843 W/m 14,6 km/h (3 Bft) 95,74 %
31.07.2017 16:06 25,6 C 27,2 C 30,6 C 51 % 0 lf 1013,2 hPa 0,0 l/m 2 min 0 min 989 W/m 12,6 km/h (3 Bft) 95,65 %
31.07.2017 16:08 25,6 C 27,2 C 31,1 C 51 % 0 lf 1013,1 hPa 0,0 l/m 2 min 0 min 745 W/m 8,4 km/h (2 Bft) 97,87 %
31.07.2017 16:10 25,5 C 27,2 C 30,6 C 51 % 0 lf 1013,1 hPa 0,0 l/m 2 min 0 min 742 W/m 10,5 km/h (2 Bft) 97,87 %
31.07.2017 16:12 25,5 C 27,8 C 31,7 C 51 % 0 lf 1013,1 hPa 0,0 l/m 2 min 0 min 739 W/m 12,6 km/h (3 Bft) 97,87 %
31.07.2017 16:14 25,5 C 27,2 C 31,7 C 52 % 0 lf 1013,2 hPa 0,0 l/m 2 min 0 min 736 W/m 10,5 km/h (2 Bft) 97,87 %
31.07.2017 16:16 25,5 C 27,2 C 30,0 C 53 % 0 lf 1013,1 hPa 0,0 l/m 2 min 0 min 903 W/m 12,6 km/h (3 Bft) 97,83 %
31.07.2017 16:18 25,5 C 26,1 C 28,3 C 52 % 0 lf 1013,2 hPa 0,0 l/m 2 min 0 min 781 W/m 10,5 km/h (2 Bft) 95,74 %
31.07.2017 16:20 25,5 C 26,1 C 27,8 C 53 % 0 lf 1013,3 hPa 0,0 l/m 2 min 0 min 829 W/m 10,5 km/h (2 Bft) 97,87 %
31.07.2017 16:22 25,4 C 26,7 C 28,9 C 53 % 0 lf 1013,3 hPa 0,0 l/m 2 min 0 min 824 W/m 12,6 km/h (3 Bft) 98,18 %
31.07.2017 16:24 25,5 C 27,8 C 31,1 C 55 % 0 lf 1013,3 hPa 0,0 l/m 2 min 0 min 718 W/m 12,6 km/h (3 Bft) 97,87 %
31.07.2017 16:26 25,5 C 27,2 C 31,7 C 52 % 0 lf 1013,2 hPa 0,0 l/m 2 min 0 min 715 W/m 14,6 km/h (3 Bft) 95,74 %
31.07.2017 16:28 25,6 C 28,3 C 32,8 C 53 % 0 lf 1013,1 hPa 0,0 l/m 2 min 0 min 711 W/m 8,4 km/h (2 Bft) 97,83 %
31.07.2017 16:30 25,6 C 28,3 C 34,4 C 53 % 0 lf 1013,1 hPa 0,0 l/m 2 min 0 min 708 W/m 12,6 km/h (3 Bft) 97,87 %
31.07.2017 16:32 25,7 C 28,3 C 35,0 C 53 % 0 lf 1013,0 hPa 0,0 l/m 2 min 0 min 704 W/m 10,5 km/h (2 Bft) 97,87 %
31.07.2017 16:34 25,7 C 27,8 C 33,9 C 53 % 0 lf 1012,9 hPa 0,0 l/m 2 min 0 min 700 W/m 12,6 km/h (3 Bft) 97,87 %
31.07.2017 16:36 25,8 C 28,3 C 31,7 C 52 % 0 lf 1012,9 hPa 0,0 l/m 2 min 0 min 697 W/m 12,6 km/h (3 Bft) 97,87 %
31.07.2017 16:38 25,9 C 28,3 C 30,0 C 53 % 0 lf 1012,8 hPa 0,0 l/m 2 min 0 min 693 W/m 16,7 km/h (3 Bft) 100,00 %
31.07.2017 16:40 26,0 C 27,8 C 29,4 C 53 % 0 lf 1012,9 hPa 0,0 l/m 2 min 0 min 689 W/m 14,6 km/h (3 Bft) 100,00 %
31.07.2017 16:42 26,1 C 27,8 C 28,9 C 53 % 0 lf 1012,9 hPa 0,0 l/m 2 min 0 min 685 W/m 12,6 km/h (3 Bft) 97,87 %
31.07.2017 16:44 26,2 C 27,2 C 27,8 C 53 % 0 lf 1012,9 hPa 0,0 l/m 2 min 0 min 681 W/m 8,4 km/h (2 Bft) 97,87 %
31.07.2017 16:46 26,3 C 27,8 C 27,8 C 52 % 0 lf 1012,9 hPa 0,0 l/m 2 min 0 min 677 W/m 8,4 km/h (2 Bft) 100,00 %
31.07.2017 16:48 26,3 C 27,8 C 27,8 C 54 % 0 lf 1012,9 hPa 0,0 l/m 2 min 0 min 674 W/m 6,3 km/h (2 Bft) 100,00 %
31.07.2017 16:50 26,4 C 27,8 C 27,8 C 53 % 0 lf 1012,8 hPa 0,0 l/m 2 min 0 min 670 W/m 10,5 km/h (2 Bft) 100,00 %
31.07.2017 16:52 26,4 C 28,3 C 27,8 C 53 % 0 lf 1012,8 hPa 0,0 l/m 2 min 0 min 666 W/m 16,7 km/h (3 Bft) 97,87 %
31.07.2017 16:54 26,6 C 28,3 C 28,3 C 52 % 0 lf 1012,8 hPa 0,0 l/m 2 min 0 min 662 W/m 12,6 km/h (3 Bft) 97,87 %
31.07.2017 16:56 26,7 C 27,8 C 28,3 C 52 % 0 lf 1012,8 hPa 0,0 l/m 2 min 0 min 658 W/m 14,6 km/h (3 Bft) 100,00 %
31.07.2017 16:58 26,7 C 27,8 C 27,8 C 52 % 0 lf 1012,6 hPa 0,0 l/m 2 min 0 min 654 W/m 14,6 km/h (3 Bft) 97,87 %
31.07.2017 17:00 26,8 C 27,8 C 27,2 C 52 % 0 lf 1012,7 hPa 0,0 l/m 2 min 0 min 649 W/m 10,5 km/h (2 Bft) 97,87 %
31.07.2017 17:02 26,8 C 27,8 C 27,8 C 51 % 0 lf 1012,6 hPa 0,0 l/m 2 min 0 min 645 W/m 10,5 km/h (2 Bft) 95,65 %
31.07.2017 17:04 26,8 C 27,8 C 27,8 C 52 % 0 lf 1012,7 hPa 0,0 l/m 2 min 0 min 641 W/m 10,5 km/h (2 Bft) 97,87 %
31.07.2017 17:06 26,8 C 27,8 C 27,8 C 51 % 0 lf 1012,6 hPa 0,0 l/m 2 min 0 min 637 W/m 14,6 km/h (3 Bft) 95,74 %
31.07.2017 17:08 26,8 C 27,8 C 27,8 C 50 % 0 lf 1012,5 hPa 0,0 l/m 2 min 0 min 633 W/m 10,5 km/h (2 Bft) 97,87 %
31.07.2017 17:10 26,8 C 26,7 C 27,2 C 50 % 0 lf 1012,6 hPa 0,0 l/m 2 min 0 min 628 W/m 14,6 km/h (3 Bft) 97,87 %
31.07.2017 17:12 26,8 C 26,7 C 27,2 C 50 % 0 lf 1012,5 hPa 0,0 l/m 2 min 0 min 624 W/m 10,5 km/h (2 Bft) 97,87 %
31.07.2017 17:14 26,8 C 26,1 C 26,7 C 49 % 0 lf 1012,4 hPa 0,0 l/m 2 min 0 min 620 W/m 12,6 km/h (3 Bft) 95,65 %
31.07.2017 17:16 26,7 C 26,7 C 26,7 C 50 % 0 lf 1012,4 hPa 0,0 l/m 2 min 0 min 615 W/m 8,4 km/h (2 Bft) 97,87 %
31.07.2017 17:18 26,7 C 26,1 C 27,2 C 50 % 0 lf 1012,4 hPa 0,0 l/m 2 min 0 min 611 W/m 14,6 km/h (3 Bft) 97,87 %
31.07.2017 17:20 26,6 C 25,6 C 26,7 C 49 % 0 lf 1012,2 hPa 0,0 l/m 2 min 0 min 607 W/m 12,6 km/h (3 Bft) 97,87 %
31.07.2017 17:22 26,5 C 26,1 C 27,2 C 50 % 0 lf 1012,3 hPa 0,0 l/m 2 min 0 min 602 W/m 12,6 km/h (3 Bft) 100,00 %
31.07.2017 17:24 26,4 C 25,6 C 26,7 C 50 % 0 lf 1012,4 hPa 0,0 l/m 2 min 0 min 598 W/m 14,6 km/h (3 Bft) 97,87 %
31.07.2017 17:26 26,4 C 25,6 C 26,7 C 50 % 0 lf 1012,5 hPa 0,0 l/m 2 min 0 min 593 W/m 12,6 km/h (3 Bft) 97,83 %
31.07.2017 17:28 26,4 C 26,1 C 26,7 C 51 % 0 lf 1012,4 hPa 0,0 l/m 2 min 0 min 589 W/m 8,4 km/h (2 Bft) 97,87 %
31.07.2017 17:30 26,3 C 25,6 C 26,1 C 51 % 0 lf 1012,3 hPa 0,0 l/m 2 min 0 min 584 W/m 6,3 km/h (2 Bft) 93,62 %
31.07.2017 17:32 26,3 C 26,1 C 26,1 C 52 % 0 lf 1012,4 hPa 0,0 l/m 2 min 0 min 418 W/m 6,3 km/h (2 Bft) 100,00 %
31.07.2017 17:34 26,3 C 26,1 C 26,1 C 52 % 0 lf 1012,4 hPa 0,0 l/m 2 min 0 min 318 W/m 4,2 km/h (1 Bft) 100,00 %
31.07.2017 17:36 26,2 C 26,7 C 26,1 C 52 % 0 lf 1012,3 hPa 0,0 l/m 2 min 0 min 347 W/m 10,5 km/h (2 Bft) 100,00 %
31.07.2017 17:38 26,2 C 26,7 C 26,1 C 51 % 0 lf 1012,3 hPa 0,0 l/m 2 min 0 min 320 W/m 12,6 km/h (3 Bft) 100,00 %
31.07.2017 17:40 26,2 C 27,2 C 26,1 C 52 % 0 lf 1012,3 hPa 0,0 l/m 2 min 0 min 426 W/m 8,4 km/h (2 Bft) 100,00 %
31.07.2017 17:42 26,2 C 27,2 C 26,1 C 51 % 0 lf 1012,3 hPa 0,0 l/m 2 min 0 min 380 W/m 18,8 km/h (3 Bft) 100,00 %
31.07.2017 17:44 26,1 C 26,7 C 26,1 C 51 % 0 lf 1012,2 hPa 0,0 l/m 2 min 0 min 263 W/m 12,6 km/h (3 Bft) 100,00 %
31.07.2017 17:46 26,1 C 26,7 C 26,1 C 51 % 0 lf 1012,3 hPa 0,0 l/m 2 min 0 min 285 W/m 8,4 km/h (2 Bft) 97,14 %
31.07.2017 17:48 26,1 C 27,2 C 26,7 C 51 % 0 lf 1012,4 hPa 0,0 l/m 2 min 0 min 295 W/m 10,5 km/h (2 Bft) 97,87 %
31.07.2017 17:50 26,1 C 27,2 C 26,7 C 50 % 0 lf 1012,5 hPa 0,0 l/m 2 min 0 min 278 W/m 6,3 km/h (2 Bft) 98,28 %
31.07.2017 17:52 26,1 C 27,2 C 26,1 C 50 % 0 lf 1012,5 hPa 0,0 l/m 2 min 0 min 284 W/m 8,4 km/h (2 Bft) 97,14 %
31.07.2017 17:54 26,0 C 27,2 C 26,1 C 51 % 0 lf 1012,5 hPa 0,0 l/m 2 min 0 min 356 W/m 8,4 km/h (2 Bft) 100,00 %
31.07.2017 17:56 26,0 C 27,2 C 26,1 C 51 % 0 lf 1012,5 hPa 0,0 l/m 2 min 0 min 479 W/m 10,5 km/h (2 Bft) 95,74 %
31.07.2017 17:58 25,9 C 27,2 C 25,6 C 51 % 0 lf 1012,5 hPa 0,0 l/m 2 min 0 min 455 W/m 10,5 km/h (2 Bft) 100,00 %
31.07.2017 18:00 25,9 C 27,2 C 26,1 C 52 % 0 lf 1012,6 hPa 0,0 l/m 2 min 0 min 523 W/m 8,4 km/h (2 Bft) 93,62 %
31.07.2017 18:02 25,9 C 27,8 C 26,1 C 52 % 0 lf 1012,5 hPa 0,0 l/m 2 min 0 min 578 W/m 12,6 km/h (3 Bft) 95,74 %
31.07.2017 18:04 25,9 C 27,8 C 26,7 C 53 % 0 lf 1012,5 hPa 0,0 l/m 2 min 0 min 576 W/m 10,5 km/h (2 Bft) 97,83 %
31.07.2017 18:07 26,0 C 27,8 C 26,1 C 53 % 0 lf 1012,4 hPa 0,0 l/m 3 min 0 min 529 W/m 14,6 km/h (3 Bft) 97,22 %
31.07.2017 18:08 26,0 C 27,8 C 26,1 C 53 % 0 lf 1012,4 hPa 0,0 l/m 1 min 0 min 400 W/m 8,4 km/h (2 Bft) 95,65 %
31.07.2017 18:10 26,0 C 27,2 C 26,1 C 54 % 0 lf 1012,4 hPa 0,0 l/m 2 min 0 min 303 W/m 8,4 km/h (2 Bft) 97,87 %
31.07.2017 18:12 26,0 C 27,2 C 25,6 C 53 % 0 lf 1012,4 hPa 0,0 l/m 0 min 0 min 219 W/m 8,4 km/h (2 Bft) 93,62 %
31.07.2017 18:14 25,9 C 26,7 C 25,0 C 53 % 0 lf 1012,3 hPa 0,0 l/m 0 min 0 min 192 W/m 16,7 km/h (3 Bft) 97,83 %
31.07.2017 18:16 25,9 C 26,1 C 25,0 C 53 % 0 lf 1012,2 hPa 0,0 l/m 2 min 0 min 232 W/m 12,6 km/h (3 Bft) 97,87 %
31.07.2017 18:18 25,8 C 26,1 C 25,0 C 53 % 0 lf 1012,3 hPa 0,0 l/m 2 min 0 min 270 W/m 8,4 km/h (2 Bft) 95,74 %
31.07.2017 18:20 25,8 C 26,1 C 24,4 C 54 % 0 lf 1012,3 hPa 0,0 l/m 2 min 0 min 225 W/m 12,6 km/h (3 Bft) 97,87 %
31.07.2017 18:22 25,7 C 25,6 C 24,4 C 53 % 0 lf 1012,4 hPa 0,0 l/m 0 min 0 min 189 W/m 10,5 km/h (2 Bft) 95,74 %
31.07.2017 18:24 25,7 C 25,6 C 24,4 C 54 % 0 lf 1012,4 hPa 0,0 l/m 0 min 0 min 196 W/m 8,4 km/h (2 Bft) 95,74 %
31.07.2017 18:26 25,6 C 25,6 C 24,4 C 55 % 0 lf 1012,4 hPa 0,0 l/m 0 min 0 min 186 W/m 12,6 km/h (3 Bft) 91,30 %
31.07.2017 18:28 25,5 C 25,6 C 24,4 C 55 % 0 lf 1012,4 hPa 0,0 l/m 0 min 0 min 192 W/m 8,4 km/h (2 Bft) 93,62 %
31.07.2017 18:30 25,4 C 25,6 C 24,4 C 55 % 0 lf 1012,4 hPa 0,0 l/m 2 min 0 min 207 W/m 10,5 km/h (2 Bft) 89,36 %
31.07.2017 18:32 25,4 C 25,6 C 24,4 C 56 % 0 lf 1012,5 hPa 0,0 l/m 2 min 0 min 258 W/m 8,4 km/h (2 Bft) 91,49 %
31.07.2017 18:34 25,3 C 25,6 C 24,4 C 56 % 0 lf 1012,5 hPa 0,0 l/m 2 min 0 min 276 W/m 14,6 km/h (3 Bft) 93,62 %
31.07.2017 18:36 25,3 C 25,6 C 24,4 C 55 % 0 lf 1012,5 hPa 0,0 l/m 2 min 0 min 247 W/m 14,6 km/h (3 Bft) 91,49 %
31.07.2017 18:38 25,2 C 25,0 C 23,9 C 55 % 0 lf 1012,6 hPa 0,0 l/m 2 min 0 min 201 W/m 12,6 km/h (3 Bft) 91,30 %
31.07.2017 18:40 25,1 C 25,0 C 23,9 C 55 % 0 lf 1012,6 hPa 0,0 l/m 0 min 0 min 163 W/m 12,6 km/h (3 Bft) 91,49 %
31.07.2017 18:42 25,1 C 25,0 C 23,9 C 56 % 0 lf 1012,6 hPa 0,0 l/m 0 min 0 min 159 W/m 8,4 km/h (2 Bft) 95,74 %
31.07.2017 18:44 25,0 C 25,0 C 23,9 C 57 % 0 lf 1012,6 hPa 0,0 l/m 0 min 0 min 183 W/m 12,6 km/h (3 Bft) 95,74 %
31.07.2017 18:46 24,9 C 25,0 C 23,9 C 57 % 0 lf 1012,5 hPa 0,0 l/m 2 min 0 min 243 W/m 12,6 km/h (3 Bft) 97,87 %
31.07.2017 18:48 24,9 C 25,0 C 23,9 C 57 % 0 lf 1012,5 hPa 0,0 l/m 2 min 0 min 287 W/m 12,6 km/h (3 Bft) 93,48 %
31.07.2017 18:50 24,8 C 25,0 C 23,9 C 57 % 0 lf 1012,5 hPa 0,0 l/m 2 min 0 min 234 W/m 10,5 km/h (2 Bft) 91,49 %
31.07.2017 18:52 24,7 C 25,0 C 23,3 C 57 % 0 lf 1012,5 hPa 0,0 l/m 2 min 0 min 218 W/m 12,6 km/h (3 Bft) 93,62 %
31.07.2017 18:54 24,7 C 25,0 C 23,3 C 57 % 0 lf 1012,5 hPa 0,0 l/m 2 min 0 min 195 W/m 12,6 km/h (3 Bft) 93,62 %
31.07.2017 18:56 24,7 C 25,0 C 23,3 C 58 % 0 lf 1012,5 hPa 0,0 l/m 0 min 0 min 165 W/m 10,5 km/h (2 Bft) 95,74 %
31.07.2017 18:58 24,6 C 24,4 C 23,3 C 57 % 0 lf 1012,5 hPa 0,0 l/m 0 min 0 min 155 W/m 10,5 km/h (2 Bft) 95,74 %
31.07.2017 19:00 24,6 C 24,4 C 23,3 C 58 % 0 lf 1012,4 hPa 0,0 l/m 0 min 0 min 164 W/m 14,6 km/h (3 Bft) 91,30 %
31.07.2017 19:02 24,5 C 24,4 C 23,3 C 58 % 0 lf 1012,4 hPa 0,0 l/m 0 min 0 min 152 W/m 12,6 km/h (3 Bft) 91,49 %
31.07.2017 19:04 24,5 C 24,4 C 23,3 C 58 % 0 lf 1012,4 hPa 0,0 l/m 0 min 0 min 158 W/m 10,5 km/h (2 Bft) 93,62 %
31.07.2017 19:06 24,4 C 24,4 C 22,8 C 58 % 0 lf 1012,4 hPa 0,0 l/m 2 min 0 min 194 W/m 8,4 km/h (2 Bft) 93,62 %
31.07.2017 19:08 24,4 C 24,4 C 22,8 C 58 % 0 lf 1012,4 hPa 0,0 l/m 2 min 0 min 167 W/m 12,6 km/h (3 Bft) 93,62 %
31.07.2017 19:10 24,4 C 23,9 C 22,8 C 58 % 0 lf 1012,4 hPa 0,0 l/m 2 min 0 min 185 W/m 8,4 km/h (2 Bft) 95,74 %
31.07.2017 19:12 24,3 C 23,9 C 22,8 C 58 % 0 lf 1012,3 hPa 0,0 l/m 2 min 0 min 184 W/m 10,5 km/h (2 Bft) 95,65 %
31.07.2017 19:14 24,3 C 23,9 C 22,8 C 58 % 0 lf 1012,2 hPa 0,0 l/m 2 min 0 min 216 W/m 10,5 km/h (2 Bft) 91,49 %
31.07.2017 19:16 24,3 C 23,9 C 22,8 C 59 % 0 lf 1012,2 hPa 0,0 l/m 2 min 0 min 226 W/m 12,6 km/h (3 Bft) 95,74 %
31.07.2017 19:18 24,2 C 23,9 C 22,8 C 59 % 0 lf 1012,2 hPa 0,0 l/m 2 min 0 min 200 W/m 14,6 km/h (3 Bft) 93,62 %
31.07.2017 19:20 24,2 C 23,9 C 22,8 C 58 % 0 lf 1012,2 hPa 0,0 l/m 2 min 0 min 145 W/m 12,6 km/h (3 Bft) 95,74 %
31.07.2017 19:22 24,2 C 23,9 C 22,8 C 58 % 0 lf 1012,2 hPa 0,0 l/m 2 min 0 min 162 W/m 14,6 km/h (3 Bft) 95,74 %
31.07.2017 19:24 24,1 C 23,9 C 22,8 C 58 % 0 lf 1012,3 hPa 0,0 l/m 2 min 0 min 145 W/m 14,6 km/h (3 Bft) 97,83 %
31.07.2017 19:26 24,1 C 23,9 C 22,2 C 59 % 0 lf 1012,3 hPa 0,0 l/m 2 min 0 min 141 W/m 14,6 km/h (3 Bft) 93,62 %
31.07.2017 19:28 24,1 C 23,9 C 22,8 C 59 % 0 lf 1012,2 hPa 0,0 l/m 2 min 0 min 161 W/m 8,4 km/h (2 Bft) 95,74 %
31.07.2017 19:30 24,1 C 23,9 C 22,2 C 59 % 0 lf 1012,2 hPa 0,0 l/m 2 min 0 min 165 W/m 10,5 km/h (2 Bft) 93,62 %
31.07.2017 19:32 24,0 C 23,9 C 22,2 C 59 % 0 lf 1012,1 hPa 0,0 l/m 2 min 0 min 141 W/m 8,4 km/h (2 Bft) 97,87 %
31.07.2017 19:34 24,0 C 23,9 C 22,2 C 59 % 0 lf 1012,1 hPa 0,0 l/m 2 min 0 min 143 W/m 10,5 km/h (2 Bft) 95,74 %
31.07.2017 19:36 24,0 C 23,9 C 22,2 C 59 % 0 lf 1012,2 hPa 0,0 l/m 2 min 0 min 176 W/m 10,5 km/h (2 Bft) 97,83 %
31.07.2017 19:38 23,9 C 23,9 C 22,2 C 59 % 0 lf 1012,1 hPa 0,0 l/m 2 min 0 min 168 W/m 10,5 km/h (2 Bft) 97,87 %
31.07.2017 19:40 23,9 C 23,9 C 22,8 C 59 % 0 lf 1012,3 hPa 0,0 l/m 2 min 0 min 179 W/m 14,6 km/h (3 Bft) 100,00 %
31.07.2017 19:42 23,9 C 23,9 C 22,8 C 59 % 0 lf 1012,3 hPa 0,0 l/m 2 min 0 min 199 W/m 8,4 km/h (2 Bft) 100,00 %
31.07.2017 19:44 23,9 C 23,9 C 22,8 C 59 % 0 lf 1012,3 hPa 0,0 l/m 2 min 0 min 195 W/m 12,6 km/h (3 Bft) 95,74 %
31.07.2017 19:46 23,9 C 23,9 C 22,8 C 59 % 0 lf 1012,2 hPa 0,0 l/m 2 min 0 min 148 W/m 8,4 km/h (2 Bft) 95,74 %
31.07.2017 19:48 23,9 C 23,9 C 22,8 C 59 % 0 lf 1012,2 hPa 0,0 l/m 2 min 0 min 163 W/m 10,5 km/h (2 Bft) 100,00 %
31.07.2017 19:50 23,9 C 23,9 C 22,2 C 59 % 0 lf 1012,1 hPa 0,0 l/m 2 min 0 min 174 W/m 12,6 km/h (3 Bft) 100,00 %
31.07.2017 19:52 23,8 C 23,9 C 22,8 C 59 % 0 lf 1012,1 hPa 0,0 l/m 2 min 0 min 179 W/m 12,6 km/h (3 Bft) 97,87 %
31.07.2017 19:54 23,8 C 23,9 C 22,8 C 59 % 0 lf 1012,2 hPa 0,0 l/m 2 min 0 min 183 W/m 12,6 km/h (3 Bft) 100,00 %
31.07.2017 19:56 23,8 C 23,9 C 22,8 C 59 % 0 lf 1012,1 hPa 0,0 l/m 2 min 0 min 157 W/m 10,5 km/h (2 Bft) 97,87 %
31.07.2017 19:58 23,8 C 23,9 C 22,8 C 59 % 0 lf 1012,1 hPa 0,0 l/m 2 min 0 min 106 W/m 12,6 km/h (3 Bft) 97,87 %
31.07.2017 20:00 23,8 C 23,9 C 22,8 C 59 % 0 lf 1012,2 hPa 0,0 l/m 2 min 0 min 98 W/m 10,5 km/h (2 Bft) 95,65 %
31.07.2017 20:02 23,8 C 23,9 C 22,8 C 59 % 0 lf 1012,1 hPa 0,0 l/m 2 min 0 min 94 W/m 10,5 km/h (2 Bft) 100,00 %
31.07.2017 20:04 23,8 C 23,9 C 22,8 C 59 % 0 lf 1012,2 hPa 0,0 l/m 0 min 0 min 84 W/m 8,4 km/h (2 Bft) 97,87 %
31.07.2017 20:06 23,8 C 23,3 C 22,2 C 59 % 0 lf 1012,2 hPa 0,0 l/m 0 min 0 min 79 W/m 8,4 km/h (2 Bft) 100,00 %
31.07.2017 20:08 23,8 C 23,3 C 22,2 C 59 % 0 lf 1012,2 hPa 0,0 l/m 0 min 0 min 81 W/m 8,4 km/h (2 Bft) 100,00 %
31.07.2017 20:10 23,8 C 23,3 C 22,2 C 59 % 0 lf 1012,2 hPa 0,0 l/m 2 min 0 min 83 W/m 10,5 km/h (2 Bft) 100,00 %
31.07.2017 20:12 23,8 C 23,3 C 22,2 C 59 % 0 lf 1012,2 hPa 0,0 l/m 2 min 0 min 80 W/m 10,5 km/h (2 Bft) 100,00 %
31.07.2017 20:14 23,7 C 23,3 C 22,2 C 59 % 0 lf 1012,2 hPa 0,0 l/m 2 min 0 min 76 W/m 10,5 km/h (2 Bft) 100,00 %
31.07.2017 20:16 23,7 C 23,3 C 22,2 C 59 % 0 lf 1012,3 hPa 0,0 l/m 0 min 0 min 68 W/m 10,5 km/h (2 Bft) 100,00 %
31.07.2017 20:18 23,7 C 23,3 C 22,2 C 59 % 0 lf 1012,3 hPa 0,0 l/m 0 min 0 min 61 W/m 6,3 km/h (2 Bft) 100,00 %
31.07.2017 20:20 23,7 C 23,3 C 22,2 C 60 % 0 lf 1012,3 hPa 0,0 l/m 0 min 0 min 56 W/m 6,3 km/h (2 Bft) 97,87 %
31.07.2017 20:22 23,7 C 23,3 C 21,7 C 60 % 0 lf 1012,3 hPa 0,0 l/m 0 min 0 min 53 W/m 8,4 km/h (2 Bft) 97,83 %
31.07.2017 20:24 23,7 C 23,3 C 21,7 C 60 % 0 lf 1012,3 hPa 0,0 l/m 0 min 0 min 48 W/m 6,3 km/h (2 Bft) 100,00 %
31.07.2017 20:26 23,7 C 23,3 C 21,7 C 60 % 0 lf 1012,2 hPa 0,0 l/m 0 min 0 min 46 W/m 8,4 km/h (2 Bft) 100,00 %
31.07.2017 20:28 23,6 C 23,3 C 21,7 C 60 % 0 lf 1012,3 hPa 0,0 l/m 0 min 0 min 43 W/m 6,3 km/h (2 Bft) 100,00 %
31.07.2017 20:30 23,6 C 22,8 C 21,7 C 60 % 0 lf 1012,3 hPa 0,0 l/m 0 min 0 min 40 W/m 6,3 km/h (2 Bft) 100,00 %
31.07.2017 20:32 23,6 C 22,8 C 21,7 C 61 % 0 lf 1012,3 hPa 0,0 l/m 0 min 0 min 35 W/m 6,3 km/h (2 Bft) 100,00 %
31.07.2017 20:34 23,6 C 22,8 C 21,1 C 61 % 0 lf 1012,3 hPa 0,0 l/m 0 min 0 min 32 W/m 6,3 km/h (2 Bft) 100,00 %
31.07.2017 20:36 23,6 C 22,8 C 21,1 C 61 % 0 lf 1012,2 hPa 0,0 l/m 0 min 0 min 31 W/m 8,4 km/h (2 Bft) 100,00 %
31.07.2017 20:38 23,5 C 22,8 C 21,1 C 61 % 0 lf 1012,2 hPa 0,0 l/m 0 min 0 min 29 W/m 6,3 km/h (2 Bft) 95,74 %
31.07.2017 20:40 23,5 C 22,2 C 21,1 C 62 % 0 lf 1012,3 hPa 0,0 l/m 0 min 0 min 27 W/m 6,3 km/h (2 Bft) 97,87 %
31.07.2017 20:42 23,4 C 22,2 C 21,1 C 62 % 0 lf 1012,3 hPa 0,0 l/m 0 min 0 min 26 W/m 6,3 km/h (2 Bft) 100,00 %
31.07.2017 20:44 23,4 C 22,2 C 21,1 C 62 % 0 lf 1012,3 hPa 0,0 l/m 0 min 0 min 24 W/m 6,3 km/h (2 Bft) 97,87 %
31.07.2017 20:46 23,4 C 22,2 C 20,6 C 62 % 0 lf 1012,2 hPa 0,0 l/m 0 min 0 min 21 W/m 6,3 km/h (2 Bft) 100,00 %
31.07.2017 20:48 23,4 C 22,2 C 20,6 C 62 % 0 lf 1012,2 hPa 0,0 l/m 0 min 0 min 18 W/m 6,3 km/h (2 Bft) 100,00 %
31.07.2017 20:50 23,3 C 22,2 C 20,6 C 62 % 0 lf 1012,2 hPa 0,0 l/m 0 min 0 min 16 W/m 4,2 km/h (1 Bft) 100,00 %
31.07.2017 20:52 23,3 C 21,7 C 20,6 C 62 % 0 lf 1012,2 hPa 0,0 l/m 0 min 0 min 16 W/m 4,2 km/h (1 Bft) 100,00 %
31.07.2017 20:54 23,2 C 21,7 C 20,0 C 63 % 0 lf 1012,2 hPa 0,0 l/m 0 min 0 min 16 W/m 4,2 km/h (1 Bft) 100,00 %
31.07.2017 20:56 23,2 C 21,7 C 20,0 C 63 % 0 lf 1012,2 hPa 0,0 l/m 0 min 0 min 16 W/m 4,2 km/h (1 Bft) 97,87 %
31.07.2017 20:58 23,2 C 21,1 C 19,4 C 63 % 0 lf 1012,2 hPa 0,0 l/m 0 min 0 min 15 W/m 4,2 km/h (1 Bft) 97,83 %
31.07.2017 21:00 23,2 C 21,1 C 19,4 C 64 % 0 lf 1012,3 hPa 0,0 l/m 0 min 0 min 14 W/m 4,2 km/h (1 Bft) 97,87 %
31.07.2017 21:02 23,1 C 21,1 C 19,4 C 64 % 0 lf 1012,3 hPa 0,0 l/m 0 min 0 min 14 W/m 4,2 km/h (1 Bft) 97,87 %
31.07.2017 21:04 23,1 C 21,1 C 18,9 C 64 % 0 lf 1012,3 hPa 0,0 l/m 0 min 0 min 12 W/m 4,2 km/h (1 Bft) 93,62 %
31.07.2017 21:06 23,0 C 20,6 C 18,9 C 64 % 0 lf 1012,2 hPa 0,0 l/m 0 min 0 min 11 W/m 6,3 km/h (2 Bft) 93,62 %
31.07.2017 21:08 22,9 C 20,6 C 18,9 C 64 % 0 lf 1012,3 hPa 0,0 l/m 0 min 0 min 11 W/m 4,2 km/h (1 Bft) 93,62 %
31.07.2017 21:10 22,9 C 20,6 C 18,9 C 64 % 0 lf 1012,4 hPa 0,0 l/m 0 min 0 min 11 W/m 4,2 km/h (1 Bft) 93,48 %
31.07.2017 21:12 22,9 C 20,6 C 18,9 C 64 % 0 lf 1012,3 hPa 0,0 l/m 0 min 0 min 9 W/m 4,2 km/h (1 Bft) 91,49 %
31.07.2017 21:14 22,8 C 20,6 C 18,3 C 64 % 0 lf 1012,3 hPa 0,0 l/m 0 min 0 min 9 W/m 6,3 km/h (2 Bft) 91,49 %
31.07.2017 21:16 22,8 C 20,0 C 18,3 C 64 % 0 lf 1012,3 hPa 0,0 l/m 0 min 0 min 8 W/m 4,2 km/h (1 Bft) 89,36 %
31.07.2017 21:18 22,7 C 20,0 C 18,3 C 65 % 0 lf 1012,3 hPa 0,0 l/m 0 min 0 min 7 W/m 4,2 km/h (1 Bft) 93,48 %
31.07.2017 21:20 22,6 C 20,0 C 18,3 C 65 % 0 lf 1012,3 hPa 0,0 l/m 0 min 0 min 7 W/m 4,2 km/h (1 Bft) 93,62 %
31.07.2017 21:22 22,6 C 20,0 C 18,3 C 65 % 0 lf 1012,3 hPa 0,0 l/m 0 min 0 min 7 W/m 6,3 km/h (2 Bft) 93,48 %
31.07.2017 21:24 22,5 C 20,0 C 18,3 C 65 % 0 lf 1012,3 hPa 0,0 l/m 0 min 0 min 7 W/m 6,3 km/h (2 Bft) 93,62 %
31.07.2017 21:26 22,4 C 20,0 C 18,3 C 65 % 0 lf 1012,4 hPa 0,0 l/m 0 min 0 min 6 W/m 6,3 km/h (2 Bft) 93,62 %
31.07.2017 21:28 22,4 C 20,0 C 18,3 C 65 % 0 lf 1012,3 hPa 0,0 l/m 0 min 0 min 5 W/m 6,3 km/h (2 Bft) 93,62 %
31.07.2017 21:30 22,3 C 20,0 C 18,3 C 65 % 0 lf 1012,3 hPa 0,0 l/m 0 min 0 min 5 W/m 4,2 km/h (1 Bft) 91,49 %
31.07.2017 21:32 22,3 C 20,0 C 17,8 C 65 % 0 lf 1012,3 hPa 0,0 l/m 0 min 0 min 4 W/m 4,2 km/h (1 Bft) 93,62 %
31.07.2017 21:34 22,2 C 20,0 C 17,8 C 65 % 0 lf 1012,4 hPa 0,0 l/m 0 min 0 min 0 W/m 4,2 km/h (1 Bft) 93,48 %
31.07.2017 21:36 22,2 C 20,0 C 17,8 C 65 % 0 lf 1012,4 hPa 0,0 l/m 0 min 0 min 0 W/m 4,2 km/h (1 Bft) 91,49 %
31.07.2017 21:38 22,1 C 19,4 C 17,8 C 65 % 0 lf 1012,5 hPa 0,0 l/m 0 min 0 min 0 W/m 4,2 km/h (1 Bft) 89,36 %
31.07.2017 21:40 22,1 C 19,4 C 17,8 C 65 % 0 lf 1012,5 hPa 0,0 l/m 0 min 0 min 0 W/m 2,1 km/h (1 Bft) 91,49 %
31.07.2017 21:42 22,0 C 19,4 C 17,8 C 65 % 0 lf 1012,5 hPa 0,0 l/m 0 min 0 min 0 W/m 2,1 km/h (1 Bft) 91,49 %
31.07.2017 21:44 21,9 C 19,4 C 17,8 C 66 % 0 lf 1012,5 hPa 0,0 l/m 0 min 0 min 0 W/m 4,2 km/h (1 Bft) 93,48 %
31.07.2017 21:46 21,9 C 19,4 C 17,8 C 66 % 0 lf 1012,5 hPa 0,0 l/m 0 min 0 min 0 W/m 2,1 km/h (1 Bft) 89,36 %
31.07.2017 21:48 21,8 C 19,4 C 17,2 C 66 % 0 lf 1012,5 hPa 0,0 l/m 0 min 0 min 0 W/m 4,2 km/h (1 Bft) 91,49 %
31.07.2017 21:50 21,8 C 19,4 C 17,2 C 66 % 0 lf 1012,5 hPa 0,0 l/m 0 min 0 min 0 W/m 2,1 km/h (1 Bft) 91,49 %
31.07.2017 21:52 21,7 C 19,4 C 17,2 C 66 % 0 lf 1012,5 hPa 0,0 l/m 0 min 0 min 0 W/m 2,1 km/h (1 Bft) 95,74 %
31.07.2017 21:54 21,7 C 20,0 C 17,2 C 66 % 0 lf 1012,5 hPa 0,0 l/m 0 min 0 min 0 W/m 4,2 km/h (1 Bft) 95,74 %
31.07.2017 21:56 21,6 C 20,0 C 17,2 C 67 % 0 lf 1012,4 hPa 0,0 l/m 0 min 0 min 0 W/m 4,2 km/h (1 Bft) 95,65 %
31.07.2017 21:58 21,6 C 20,0 C 17,2 C 67 % 0 lf 1012,4 hPa 0,0 l/m 0 min 0 min 0 W/m 2,1 km/h (1 Bft) 93,62 %
31.07.2017 22:00 21,6 C 19,4 C 17,2 C 67 % 0 lf 1012,3 hPa 0,0 l/m 0 min 0 min 0 W/m 2,1 km/h (1 Bft) 95,74 %
31.07.2017 22:02 21,5 C 19,4 C 17,2 C 68 % 0 lf 1012,4 hPa 0,0 l/m 0 min 0 min 0 W/m 0,0 km/h (0 Bft) 93,62 %
31.07.2017 22:04 21,4 C 19,4 C 17,2 C 68 % 0 lf 1012,4 hPa 0,0 l/m 0 min 0 min 0 W/m 0,0 km/h (0 Bft) 95,74 %
31.07.2017 22:06 21,4 C 19,4 C 17,2 C 68 % 0 lf 1012,4 hPa 0,0 l/m 0 min 0 min 0 W/m 0,0 km/h (0 Bft) 97,87 %
31.07.2017 22:08 21,3 C 19,4 C 17,2 C 68 % 0 lf 1012,5 hPa 0,0 l/m 0 min 0 min 0 W/m 4,2 km/h (1 Bft) 97,83 %
31.07.2017 22:10 21,3 C 19,4 C 17,2 C 69 % 0 lf 1012,6 hPa 0,0 l/m 0 min 0 min 0 W/m 6,3 km/h (2 Bft) 97,87 %
31.07.2017 22:12 21,3 C 19,4 C 17,8 C 69 % 0 lf 1012,6 hPa 0,0 l/m 0 min 0 min 0 W/m 8,4 km/h (2 Bft) 95,74 %
31.07.2017 22:14 21,2 C 19,4 C 17,8 C 69 % 0 lf 1012,7 hPa 0,0 l/m 0 min 0 min 0 W/m 4,2 km/h (1 Bft) 95,74 %
31.07.2017 22:16 21,2 C 19,4 C 17,8 C 70 % 0 lf 1012,7 hPa 0,0 l/m 0 min 0 min 0 W/m 4,2 km/h (1 Bft) 95,74 %
31.07.2017 22:18 21,1 C 19,4 C 17,8 C 70 % 0 lf 1012,8 hPa 0,0 l/m 0 min 0 min 0 W/m 6,3 km/h (2 Bft) 93,62 %
31.07.2017 22:20 21,1 C 18,9 C 17,8 C 70 % 0 lf 1012,9 hPa 0,0 l/m 0 min 0 min 0 W/m 4,2 km/h (1 Bft) 95,65 %
31.07.2017 22:22 21,0 C 19,4 C 17,8 C 70 % 0 lf 1013,0 hPa 0,0 l/m 0 min 0 min 0 W/m 6,3 km/h (2 Bft) 95,74 %
31.07.2017 22:24 21,0 C 19,4 C 17,8 C 70 % 0 lf 1012,9 hPa 0,0 l/m 0 min 0 min 0 W/m 6,3 km/h (2 Bft) 95,74 %
31.07.2017 22:26 20,9 C 19,4 C 17,8 C 70 % 0 lf 1012,9 hPa 0,0 l/m 0 min 0 min 0 W/m 6,3 km/h (2 Bft) 97,87 %
31.07.2017 22:28 20,9 C 19,4 C 17,8 C 71 % 0 lf 1012,9 hPa 0,0 l/m 0 min 0 min 0 W/m 8,4 km/h (2 Bft) 100,00 %
31.07.2017 22:30 20,8 C 19,4 C 18,3 C 71 % 0 lf 1013,1 hPa 0,0 l/m 0 min 0 min 0 W/m 6,3 km/h (2 Bft) 97,87 %
31.07.2017 22:32 20,8 C 19,4 C 17,8 C 71 % 0 lf 1013,0 hPa 0,0 l/m 0 min 0 min 0 W/m 4,2 km/h (1 Bft) 97,83 %
31.07.2017 22:34 20,8 C 19,4 C 17,8 C 71 % 0 lf 1012,9 hPa 0,0 l/m 0 min 0 min 0 W/m 4,2 km/h (1 Bft) 100,00 %
31.07.2017 22:36 20,7 C 19,4 C 17,8 C 71 % 0 lf 1012,8 hPa 0,0 l/m 0 min 0 min 0 W/m 2,1 km/h (1 Bft) 100,00 %
31.07.2017 22:38 20,7 C 18,9 C 17,8 C 71 % 0 lf 1012,9 hPa 0,0 l/m 0 min 0 min 0 W/m 2,1 km/h (1 Bft) 100,00 %
31.07.2017 22:40 20,7 C 18,9 C 17,8 C 71 % 0 lf 1013,0 hPa 0,0 l/m 0 min 0 min 0 W/m 2,1 km/h (1 Bft) 97,87 %
31.07.2017 22:42 20,6 C 18,9 C 17,8 C 71 % 0 lf 1013,1 hPa 0,0 l/m 0 min 0 min 0 W/m 4,2 km/h (1 Bft) 97,87 %
31.07.2017 22:44 20,6 C 18,9 C 17,8 C 71 % 0 lf 1013,1 hPa 0,0 l/m 0 min 0 min 0 W/m 2,1 km/h (1 Bft) 97,83 %
31.07.2017 22:46 20,6 C 18,9 C 17,8 C 71 % 0 lf 1013,1 hPa 0,0 l/m 0 min 0 min 0 W/m 4,2 km/h (1 Bft) 95,74 %
31.07.2017 22:48 20,5 C 18,9 C 17,8 C 71 % 0 lf 1013,1 hPa 0,0 l/m 0 min 0 min 0 W/m 2,1 km/h (1 Bft) 100,00 %
31.07.2017 22:50 20,5 C 18,9 C 17,8 C 71 % 0 lf 1013,1 hPa 0,0 l/m 0 min 0 min 0 W/m 2,1 km/h (1 Bft) 97,87 %
31.07.2017 22:52 20,4 C 18,9 C 17,8 C 72 % 0 lf 1013,0 hPa 0,0 l/m 0 min 0 min 0 W/m 2,1 km/h (1 Bft) 100,00 %
31.07.2017 22:54 20,4 C 18,9 C 17,8 C 72 % 0 lf 1013,0 hPa 0,0 l/m 0 min 0 min 0 W/m 2,1 km/h (1 Bft) 95,65 %
31.07.2017 22:56 20,4 C 18,9 C 17,8 C 72 % 0 lf 1013,0 hPa 0,0 l/m 0 min 0 min 0 W/m 0,0 km/h (0 Bft) 97,87 %
31.07.2017 22:58 20,4 C 18,9 C 17,8 C 72 % 0 lf 1013,1 hPa 0,0 l/m 0 min 0 min 0 W/m 0,0 km/h (0 Bft) 100,00 %
31.07.2017 23:00 20,3 C 18,9 C 17,8 C 72 % 0 lf 1013,1 hPa 0,0 l/m 0 min 0 min 0 W/m 0,0 km/h (0 Bft) 97,87 %
31.07.2017 23:02 20,3 C 18,9 C 17,8 C 72 % 0 lf 1013,2 hPa 0,0 l/m 0 min 0 min 0 W/m 0,0 km/h (0 Bft) 100,00 %
31.07.2017 23:04 20,3 C 18,9 C 17,8 C 72 % 0 lf 1013,2 hPa 0,0 l/m 0 min 0 min 0 W/m 0,0 km/h (0 Bft) 97,87 %
31.07.2017 23:06 20,2 C 18,9 C 18,3 C 72 % 0 lf 1013,0 hPa 0,0 l/m 0 min 0 min 0 W/m 0,0 km/h (0 Bft) 97,83 %
31.07.2017 23:08 20,2 C 18,9 C 18,3 C 72 % 0 lf 1012,8 hPa 0,0 l/m 0 min 0 min 0 W/m 6,3 km/h (2 Bft) 97,87 %
31.07.2017 23:10 20,2 C 18,9 C 18,3 C 72 % 0 lf 1012,7 hPa 0,0 l/m 0 min 0 min 0 W/m 6,3 km/h (2 Bft) 93,62 %
31.07.2017 23:12 20,2 C 19,4 C 18,3 C 72 % 0 lf 1012,7 hPa 0,0 l/m 0 min 0 min 0 W/m 6,3 km/h (2 Bft) 95,74 %
31.07.2017 23:14 20,2 C 18,9 C 18,3 C 72 % 0 lf 1012,6 hPa 0,0 l/m 0 min 0 min 0 W/m 8,4 km/h (2 Bft) 95,74 %
31.07.2017 23:16 20,1 C 19,4 C 18,3 C 72 % 0 lf 1012,7 hPa 0,0 l/m 0 min 0 min 0 W/m 6,3 km/h (2 Bft) 95,74 %
31.07.2017 23:18 20,1 C 18,9 C 18,3 C 72 % 0 lf 1012,7 hPa 0,0 l/m 0 min 0 min 0 W/m 8,4 km/h (2 Bft) 97,83 %
31.07.2017 23:20 20,1 C 18,9 C 18,3 C 73 % 0 lf 1012,7 hPa 0,0 l/m 0 min 0 min 0 W/m 6,3 km/h (2 Bft) 97,87 %
31.07.2017 23:22 20,1 C 18,9 C 18,3 C 73 % 0 lf 1012,8 hPa 0,0 l/m 0 min 0 min 0 W/m 6,3 km/h (2 Bft) 97,87 %
31.07.2017 23:24 20,1 C 18,9 C 17,8 C 73 % 0 lf 1013,0 hPa 0,0 l/m 0 min 0 min 0 W/m 8,4 km/h (2 Bft) 95,74 %
31.07.2017 23:26 20,1 C 18,9 C 17,8 C 73 % 0 lf 1013,0 hPa 0,0 l/m 0 min 0 min 0 W/m 4,2 km/h (1 Bft) 95,74 %
31.07.2017 23:28 20,1 C 18,9 C 17,8 C 73 % 0 lf 1013,1 hPa 0,0 l/m 0 min 0 min 0 W/m 2,1 km/h (1 Bft) 95,74 %
31.07.2017 23:30 20,0 C 18,9 C 17,8 C 73 % 0 lf 1013,0 hPa 0,0 l/m 0 min 0 min 0 W/m 2,1 km/h (1 Bft) 97,83 %
31.07.2017 23:32 20,0 C 18,9 C 17,2 C 73 % 0 lf 1013,0 hPa 0,0 l/m 0 min 0 min 0 W/m 6,3 km/h (2 Bft) 97,87 %
31.07.2017 23:34 20,0 C 18,9 C 17,2 C 73 % 0 lf 1013,2 hPa 0,0 l/m 0 min 0 min 0 W/m 4,2 km/h (1 Bft) 97,87 %
31.07.2017 23:36 20,0 C 18,9 C 17,2 C 73 % 0 lf 1013,2 hPa 0,0 l/m 0 min 0 min 0 W/m 2,1 km/h (1 Bft) 97,87 %
31.07.2017 23:38 19,9 C 18,3 C 17,2 C 73 % 0 lf 1013,2 hPa 0,0 l/m 0 min 0 min 0 W/m 4,2 km/h (1 Bft) 100,00 %
31.07.2017 23:40 19,9 C 18,3 C 17,2 C 73 % 0 lf 1013,2 hPa 0,0 l/m 0 min 0 min 0 W/m 4,2 km/h (1 Bft) 100,00 %
31.07.2017 23:42 19,9 C 18,3 C 17,2 C 73 % 0 lf 1013,2 hPa 0,0 l/m 0 min 0 min 0 W/m 2,1 km/h (1 Bft) 95,65 %
31.07.2017 23:44 19,9 C 18,3 C 17,2 C 73 % 0 lf 1013,1 hPa 0,0 l/m 0 min 0 min 0 W/m 4,2 km/h (1 Bft) 97,87 %
31.07.2017 23:46 19,9 C 18,3 C 17,2 C 73 % 0 lf 1013,0 hPa 0,0 l/m 0 min 0 min 0 W/m 4,2 km/h (1 Bft) 100,00 %
31.07.2017 23:48 19,9 C 18,3 C 17,2 C 73 % 0 lf 1012,9 hPa 0,0 l/m 0 min 0 min 0 W/m 6,3 km/h (2 Bft) 97,87 %
31.07.2017 23:50 19,8 C 18,9 C 17,8 C 73 % 0 lf 1012,8 hPa 0,0 l/m 0 min 0 min 0 W/m 6,3 km/h (2 Bft) 95,74 %
31.07.2017 23:52 19,8 C 18,9 C 17,8 C 73 % 0 lf 1012,9 hPa 0,0 l/m 0 min 0 min 0 W/m 6,3 km/h (2 Bft) 95,74 %
31.07.2017 23:54 19,8 C 18,9 C 17,2 C 73 % 0 lf 1012,9 hPa 0,0 l/m 0 min 0 min 0 W/m 4,2 km/h (1 Bft) 95,65 %
31.07.2017 23:56 19,8 C 18,9 C 17,2 C 73 % 0 lf 1012,8 hPa 0,0 l/m 0 min 0 min 0 W/m 4,2 km/h (1 Bft) 97,87 %
31.07.2017 23:58 19,8 C 18,9 C 17,2 C 73 % 0 lf 1012,8 hPa 0,0 l/m 0 min 0 min 0 W/m 4,2 km/h (1 Bft) 91,49 %
_ Min-Zeit 06:20 04:38 04:46 15:02 00:00 00:00 - - - - 00:04 08:42
Minimum _ 15,1 C 13,9 C 12,8 C 49 % 0 lf 1010,6 hPa - - - - 0,0 km/h (0 Bft) 88,14 %
_ Max-Zeit 17:00 14:40 15:18 07:16 06:02 12:54 00:00 10:50 00:30 11:50 09:38 01:32
Maximum _ 26,8 C 33,9 C 36,1 C 96 % 15 lf 1013,9 hPa 0,0 l/m 4 min 2 min 1037 W/m 33,5 km/h
S (5 Bft)
100,00 %
Durchschnitt _ 21,0 C 22,2 C 21,1 C 72 % 1 lf 1012,2 hPa #0,0 l/m #12:52 h #6 min. 433 W/m 10,0 km/h (2 Bft) 96,47 %
© 2017 W. Hausmann